Observation data for Tahoka on 05/25/2019      Previous  Date  Next       Current Mesonet Observations  Soil Data  Daily Summary Page  Observations in Plain Language
KTAS 250500Z 10008KT 20/18 A2998 RMK A01 T02030184  RH  088%=      5-min Rain = 0
KTAS 250501Z 10007KT 20/18 A2998 RMK A01 T02030184  RH  088%=      5-min Rain = 0
KTAS 250502Z 10008KT 20/18 A2998 RMK A01 T02040183  RH  088%=      5-min Rain = 0
KTAS 250503Z 10008KT 21/18 A2998 RMK A01 T02050183  RH  087%=      5-min Rain = 0
KTAS 250504Z 10007KT 21/18 A2998 RMK A01 T02050183  RH  087%=      5-min Rain = 0
KTAS 250505Z 10006KT 20/18 A2998 RMK A01 T02040183  RH  088%=      5-min Rain = 0
KTAS 250506Z 10008KT 20/18 A2998 RMK A01 T02030183  RH  088%=      5-min Rain = 0
KTAS 250507Z 10008KT 20/18 A2998 RMK A01 T02030183  RH  088%=      5-min Rain = 0
KTAS 250508Z 10009KT 20/18 A2998 RMK A01 T02040183  RH  088%=      5-min Rain = 0
KTAS 250509Z 11007KT 20/18 A2998 RMK A01 T02040183  RH  088%=      5-min Rain = 0
KTAS 250510Z 10008KT 21/18 A2998 RMK A01 T02050183  RH  087%=      5-min Rain = 0
KTAS 250511Z 10009KT 21/18 A2998 RMK A01 T02050183  RH  087%=      5-min Rain = 0
KTAS 250512Z 10007KT 21/18 A2998 RMK A01 T02060183  RH  086%=      5-min Rain = 0
KTAS 250513Z 10007KT 21/18 A2998 RMK A01 T02060183  RH  086%=      5-min Rain = 0
KTAS 250514Z 10008KT 21/18 A2998 RMK A01 T02050183  RH  087%=      5-min Rain = 0
KTAS 250515Z 10008KT 20/18 A2998 RMK A01 T02040183  RH  087%=      5-min Rain = 0
KTAS 250516Z 10008KT 20/18 A2998 RMK A01 T02040183  RH  087%=      5-min Rain = 0
KTAS 250517Z 10007KT 20/18 A2998 RMK A01 T02040183  RH  088%=      5-min Rain = 0
KTAS 250518Z 10007KT 20/18 A2998 RMK A01 T02040183  RH  088%=      5-min Rain = 0
KTAS 250519Z 10008KT 20/18 A2998 RMK A01 T02040183  RH  087%=      5-min Rain = 0
KTAS 250520Z 11008KT 20/18 A2998 RMK A01 T02040182  RH  087%=      5-min Rain = 0
KTAS 250521Z 10007KT 20/18 A2998 RMK A01 T02040183  RH  087%=      5-min Rain = 0
KTAS 250522Z 10006KT 20/18 A2998 RMK A01 T02040183  RH  087%=      5-min Rain = 0
KTAS 250523Z 09007KT 20/18 A2998 RMK A01 T02030182  RH  088%=      5-min Rain = 0
KTAS 250524Z 10007KT 20/18 A2998 RMK A01 T02030183  RH  088%=      5-min Rain = 0
KTAS 250525Z 09008KT 20/18 A2998 RMK A01 T02030183  RH  088%=      5-min Rain = 0
KTAS 250526Z 09007KT 20/18 A2998 RMK A01 T02030182  RH  088%=      5-min Rain = 0
KTAS 250527Z 09006KT 20/18 A2998 RMK A01 T02020182  RH  088%=      5-min Rain = 0
KTAS 250528Z 09006KT 20/18 A2998 RMK A01 T02020182  RH  088%=      5-min Rain = 0
KTAS 250529Z 08006KT 20/18 A2998 RMK A01 T02010182  RH  089%=      5-min Rain = 0
KTAS 250530Z 07006KT 20/18 A2998 RMK A01 T02000182  RH  089%=      5-min Rain = 0
KTAS 250531Z 07006KT 20/18 A2998 RMK A01 T02000181  RH  089%=      5-min Rain = 0
KTAS 250532Z 08006KT 20/18 A2998 RMK A01 T01990181  RH  090%=      5-min Rain = 0
KTAS 250533Z 08007KT 20/18 A2998 RMK A01 T01980181  RH  090%=      5-min Rain = 0
KTAS 250534Z 08008KT 20/18 A2998 RMK A01 T01970181  RH  091%=      5-min Rain = 0
KTAS 250535Z 08007KT 20/18 A2998 RMK A01 T01960181  RH  091%=      5-min Rain = 0
KTAS 250536Z 08008KT 20/18 A2998 RMK A01 T01960182  RH  091%=      5-min Rain = 0
KTAS 250537Z 08007KT 20/18 A2998 RMK A01 T01960182  RH  092%=      5-min Rain = 0
KTAS 250538Z 07008KT 20/18 A2997 RMK A01 T01950182  RH  092%=      5-min Rain = 0
KTAS 250539Z 08008KT 20/18 A2997 RMK A01 T01950182  RH  092%=      5-min Rain = 0
KTAS 250540Z 08007KT 20/18 A2997 RMK A01 T01950182  RH  092%=      5-min Rain = 0
KTAS 250541Z 08007KT 20/18 A2997 RMK A01 T01950182  RH  092%=      5-min Rain = 0
KTAS 250542Z 08008KT 20/18 A2997 RMK A01 T01950182  RH  092%=      5-min Rain = 0
KTAS 250543Z 08007KT 19/18 A2997 RMK A01 T01940181  RH  092%=      5-min Rain = 0
KTAS 250544Z 07008KT 19/18 A2997 RMK A01 T01940181  RH  092%=      5-min Rain = 0
KTAS 250545Z 08007KT 19/18 A2997 RMK A01 T01930181  RH  093%=      5-min Rain = 0
KTAS 250546Z 08007KT 19/18 A2997 RMK A01 T01930180  RH  093%=      5-min Rain = 0
KTAS 250547Z 07007KT 19/18 A2997 RMK A01 T01920180  RH  093%=      5-min Rain = 0
KTAS 250548Z 07007KT 19/18 A2997 RMK A01 T01920180  RH  093%=      5-min Rain = 0
KTAS 250549Z 07007KT 19/18 A2997 RMK A01 T01910180  RH  093%=      5-min Rain = 0
KTAS 250550Z 07006KT 19/18 A2997 RMK A01 T01910180  RH  093%=      5-min Rain = 0
KTAS 250551Z 07007KT 19/18 A2997 RMK A01 T01910180  RH  093%=      5-min Rain = 0
KTAS 250552Z 07006KT 19/18 A2997 RMK A01 T01910180  RH  093%=      5-min Rain = 0
KTAS 250553Z 07006KT 19/18 A2997 RMK A01 T01900179  RH  094%=      5-min Rain = 0
KTAS 250554Z 07006KT 19/18 A2997 RMK A01 T01900179  RH  094%=      5-min Rain = 0
KTAS 250555Z 06006KT 19/18 A2997 RMK A01 T01890179  RH  094%=      5-min Rain = 0
KTAS 250556Z 06006KT 19/18 A2997 RMK A01 T01880178  RH  094%=      5-min Rain = 0
KTAS 250557Z 06006KT 19/18 A2997 RMK A01 T01880178  RH  094%=      5-min Rain = 0
KTAS 250558Z 06007KT 19/18 A2997 RMK A01 T01870176  RH  094%=      5-min Rain = 0
KTAS 250559Z 06008KT 19/18 A2997 RMK A01 T01860175  RH  094%=      5-min Rain = 0
KTAS 250600Z 06008KT 19/18 A2997 RMK A01 T01850175  RH  094%=      5-min Rain = 0
KTAS 250601Z 07010KT 18/17 A2997 RMK A01 T01840174  RH  094%=      5-min Rain = 0
KTAS 250602Z 07008KT 18/17 A2997 RMK A01 T01840173  RH  093%=      5-min Rain = 0
KTAS 250603Z 07009KT 18/17 A2997 RMK A01 T01830172  RH  093%=      5-min Rain = 0
KTAS 250604Z 07009KT 18/17 A2997 RMK A01 T01830172  RH  093%=      5-min Rain = 0
KTAS 250605Z 07007KT 18/17 A2998 RMK A01 T01830172  RH  094%=      5-min Rain = 0
KTAS 250606Z 07008KT 18/17 A2998 RMK A01 T01820172  RH  094%=      5-min Rain = 0
KTAS 250607Z 07007KT 18/17 A2998 RMK A01 T01820172  RH  094%=      5-min Rain = 0
KTAS 250608Z 07008KT 18/17 A2998 RMK A01 T01820172  RH  094%=      5-min Rain = 0
KTAS 250609Z 08007KT 18/17 A2998 RMK A01 T01820172  RH  094%=      5-min Rain = 0
KTAS 250610Z 08006KT 18/17 A2998 RMK A01 T01820172  RH  094%=      5-min Rain = 0
KTAS 250611Z 08006KT 18/17 A2997 RMK A01 T01810172  RH  094%=      5-min Rain = 0
KTAS 250612Z 08005KT 18/17 A2997 RMK A01 T01810172  RH  094%=      5-min Rain = 0
KTAS 250613Z 08006KT 18/17 A2997 RMK A01 T01810171  RH  094%=      5-min Rain = 0
KTAS 250614Z 07006KT 18/17 A2997 RMK A01 T01810171  RH  094%=      5-min Rain = 0
KTAS 250615Z 08006KT 18/17 A2997 RMK A01 T01800171  RH  094%=      5-min Rain = 0
KTAS 250616Z 08007KT 18/17 A2997 RMK A01 T01800171  RH  094%=      5-min Rain = 0
KTAS 250617Z 08007KT 18/17 A2997 RMK A01 T01800171  RH  095%=      5-min Rain = 0
KTAS 250618Z 08007KT 18/17 A2997 RMK A01 T01800171  RH  095%=      5-min Rain = 0
KTAS 250619Z 07007KT 18/17 A2997 RMK A01 T01800171  RH  095%=      5-min Rain = 0
KTAS 250620Z 08007KT 18/17 A2997 RMK A01 T01800172  RH  095%=      5-min Rain = 0
KTAS 250621Z 07008KT 18/17 A2997 RMK A01 T01800172  RH  095%=      5-min Rain = 0
KTAS 250622Z 07008KT 18/17 A2997 RMK A01 T01800172  RH  095%=      5-min Rain = 0
KTAS 250623Z 08008KT 18/17 A2997 RMK A01 T01800171  RH  095%=      5-min Rain = 0
KTAS 250624Z 07008KT 18/17 A2997 RMK A01 T01790171  RH  095%=      5-min Rain = 0
KTAS 250625Z 07008KT 18/17 A2997 RMK A01 T01790171  RH  095%=      5-min Rain = 0
KTAS 250626Z 07010KT 18/17 A2997 RMK A01 T01790170  RH  095%=      5-min Rain = 0
KTAS 250627Z 08009KT 18/17 A2997 RMK A01 T01790170  RH  095%=      5-min Rain = 0
KTAS 250628Z 08008KT 18/17 A2997 RMK A01 T01790171  RH  095%=      5-min Rain = 0
KTAS 250629Z 08008KT 18/17 A2997 RMK A01 T01790171  RH  095%=      5-min Rain = 0
KTAS 250630Z 07007KT 18/17 A2997 RMK A01 T01790171  RH  095%=      5-min Rain = 0
KTAS 250631Z 07008KT 18/17 A2997 RMK A01 T01800171  RH  095%=      5-min Rain = 0
KTAS 250632Z 07009KT 18/17 A2996 RMK A01 T01800171  RH  095%=      5-min Rain = 0
KTAS 250633Z 07008KT 18/17 A2996 RMK A01 T01790171  RH  095%=      5-min Rain = 0
KTAS 250634Z 07008KT 18/17 A2996 RMK A01 T01790171  RH  095%=      5-min Rain = 0
KTAS 250635Z 07009KT 18/17 A2996 RMK A01 T01790171  RH  095%=      5-min Rain = 0
KTAS 250636Z 08008KT 18/17 A2996 RMK A01 T01790171  RH  095%=      5-min Rain = 0
KTAS 250637Z 08008KT 18/17 A2996 RMK A01 T01790171  RH  095%=      5-min Rain = 0
KTAS 250638Z 08008KT 18/17 A2996 RMK A01 T01790171  RH  095%=      5-min Rain = 0
KTAS 250639Z 08007KT 18/17 A2996 RMK A01 T01790171  RH  095%=      5-min Rain = 0
KTAS 250640Z 08007KT 18/17 A2996 RMK A01 T01780171  RH  095%=      5-min Rain = 0
KTAS 250641Z 08007KT 18/17 A2996 RMK A01 T01780171  RH  095%=      5-min Rain = 0
KTAS 250642Z 08008KT 18/17 A2996 RMK A01 T01780171  RH  095%=      5-min Rain = 0
KTAS 250643Z 08007KT 18/17 A2996 RMK A01 T01790171  RH  095%=      5-min Rain = 0
KTAS 250644Z 08008KT 18/17 A2996 RMK A01 T01790171  RH  095%=      5-min Rain = 0
KTAS 250645Z 08008KT 18/17 A2996 RMK A01 T01790172  RH  096%=      5-min Rain = 0
KTAS 250646Z 08006KT 18/17 A2996 RMK A01 T01800172  RH  096%=      5-min Rain = 0
KTAS 250647Z 09007KT 18/17 A2996 RMK A01 T01800173  RH  096%=      5-min Rain = 0
KTAS 250648Z 09007KT 18/17 A2996 RMK A01 T01800173  RH  096%=      5-min Rain = 0
KTAS 250649Z 09007KT 18/17 A2996 RMK A01 T01800173  RH  096%=      5-min Rain = 0
KTAS 250650Z 09006KT 18/17 A2996 RMK A01 T01810174  RH  096%=      5-min Rain = 0
KTAS 250651Z 09006KT 18/17 A2996 RMK A01 T01810174  RH  096%=      5-min Rain = 0
KTAS 250652Z 09007KT 18/17 A2996 RMK A01 T01810173  RH  095%=      5-min Rain = 0
KTAS 250653Z 08006KT 18/17 A2996 RMK A01 T01810174  RH  095%=      5-min Rain = 0
KTAS 250654Z 09006KT 18/17 A2996 RMK A01 T01820174  RH  095%=      5-min Rain = 0
KTAS 250655Z 09007KT 18/17 A2996 RMK A01 T01820174  RH  095%=      5-min Rain = 0
KTAS 250656Z 09007KT 18/18 A2996 RMK A01 T01820175  RH  095%=      5-min Rain = 0
KTAS 250657Z 09007KT 18/17 A2996 RMK A01 T01820174  RH  095%=      5-min Rain = 0
KTAS 250658Z 10008KT 18/18 A2996 RMK A01 T01830175  RH  095%=      5-min Rain = 0
KTAS 250659Z 09008KT 18/18 A2996 RMK A01 T01830175  RH  095%=      5-min Rain = 0
KTAS 250700Z 09008KT 18/18 A2996 RMK A01 T01830175  RH  095%=      5-min Rain = 0
KTAS 250701Z 09008KT 18/17 A2996 RMK A01 T01830174  RH  094%=      5-min Rain = 0
KTAS 250702Z 10008KT 18/17 A2996 RMK A01 T01830174  RH  094%=      5-min Rain = 0
KTAS 250703Z 09008KT 18/17 A2996 RMK A01 T01830174  RH  094%=      5-min Rain = 0
KTAS 250704Z 09006KT 18/17 A2996 RMK A01 T01830174  RH  094%=      5-min Rain = 0
KTAS 250705Z 09008KT 18/17 A2996 RMK A01 T01830174  RH  094%=      5-min Rain = 0
KTAS 250706Z 08008KT 18/18 A2996 RMK A01 T01830175  RH  094%=      5-min Rain = 0
KTAS 250707Z 08007KT 18/17 A2996 RMK A01 T01830174  RH  094%=      5-min Rain = 0
KTAS 250708Z 08007KT 18/18 A2996 RMK A01 T01830175  RH  095%=      5-min Rain = 0
KTAS 250709Z 07007KT 18/18 A2996 RMK A01 T01830175  RH  095%=      5-min Rain = 0
KTAS 250710Z 07008KT 18/18 A2996 RMK A01 T01830175  RH  095%=      5-min Rain = 0
KTAS 250711Z 07008KT 18/17 A2996 RMK A01 T01830174  RH  095%=      5-min Rain = 0
KTAS 250712Z 07008KT 18/17 A2996 RMK A01 T01830174  RH  095%=      5-min Rain = 0
KTAS 250713Z 07008KT 18/17 A2996 RMK A01 T01830174  RH  095%=      5-min Rain = 0
KTAS 250714Z 07009KT 18/17 A2996 RMK A01 T01820174  RH  095%=      5-min Rain = 0
KTAS 250715Z 07008KT 18/17 A2996 RMK A01 T01820174  RH  095%=      5-min Rain = 0
KTAS 250716Z 07009KT 18/17 A2996 RMK A01 T01820174  RH  095%=      5-min Rain = 0
KTAS 250717Z 07008KT 18/17 A2996 RMK A01 T01820174  RH  095%=      5-min Rain = 0
KTAS 250718Z 07008KT 18/17 A2996 RMK A01 T01820174  RH  095%=      5-min Rain = 0
KTAS 250719Z 07008KT 18/17 A2996 RMK A01 T01820174  RH  095%=      5-min Rain = 0
KTAS 250720Z 07007KT 18/17 A2996 RMK A01 T01820174  RH  095%=      5-min Rain = 0
KTAS 250721Z 07008KT 18/17 A2996 RMK A01 T01820174  RH  095%=      5-min Rain = 0
KTAS 250722Z 07007KT 18/17 A2996 RMK A01 T01820174  RH  095%=      5-min Rain = 0
KTAS 250723Z 08006KT 18/17 A2996 RMK A01 T01820174  RH  095%=      5-min Rain = 0
KTAS 250724Z 07008KT 18/17 A2996 RMK A01 T01820174  RH  095%=      5-min Rain = 0
KTAS 250725Z 07008KT 18/17 A2996 RMK A01 T01820174  RH  095%=      5-min Rain = 0
KTAS 250726Z 07009KT 18/17 A2996 RMK A01 T01820174  RH  095%=      5-min Rain = 0
KTAS 250727Z 07008KT 18/17 A2996 RMK A01 T01820174  RH  095%=      5-min Rain = 0
KTAS 250728Z 08008KT 18/17 A2996 RMK A01 T01820174  RH  095%=      5-min Rain = 0
KTAS 250729Z 07008KT 18/17 A2996 RMK A01 T01820174  RH  095%=      5-min Rain = 0
KTAS 250730Z 08007KT 18/17 A2996 RMK A01 T01820174  RH  095%=      5-min Rain = 0
KTAS 250731Z 08007KT 18/17 A2996 RMK A01 T01820174  RH  095%=      5-min Rain = 0
KTAS 250732Z 08007KT 18/17 A2996 RMK A01 T01820174  RH  095%=      5-min Rain = 0
KTAS 250733Z 08007KT 18/17 A2995 RMK A01 T01820174  RH  095%=      5-min Rain = 0
KTAS 250734Z 08007KT 18/18 A2995 RMK A01 T01820175  RH  095%=      5-min Rain = 0
KTAS 250735Z 09007KT 18/18 A2995 RMK A01 T01830175  RH  095%=      5-min Rain = 0
KTAS 250736Z 09007KT 18/18 A2995 RMK A01 T01830175  RH  095%=      5-min Rain = 0
KTAS 250737Z 09007KT 18/18 A2995 RMK A01 T01830175  RH  095%=      5-min Rain = 0
KTAS 250738Z 09007KT 18/18 A2995 RMK A01 T01830176  RH  096%=      5-min Rain = 0
KTAS 250739Z 09007KT 18/18 A2995 RMK A01 T01830176  RH  096%=      5-min Rain = 0
KTAS 250740Z 09007KT 18/18 A2995 RMK A01 T01830176  RH  096%=      5-min Rain = 0
KTAS 250741Z 09008KT 18/18 A2995 RMK A01 T01830176  RH  095%=      5-min Rain = 0
KTAS 250742Z 09007KT 18/18 A2995 RMK A01 T01830176  RH  095%=      5-min Rain = 0
KTAS 250743Z 09006KT 18/18 A2995 RMK A01 T01830176  RH  095%=      5-min Rain = 0
KTAS 250744Z 09006KT 18/18 A2995 RMK A01 T01830176  RH  095%=      5-min Rain = 0
KTAS 250745Z 09007KT 18/18 A2995 RMK A01 T01840176  RH  095%=      5-min Rain = 0
KTAS 250746Z 09008KT 18/18 A2995 RMK A01 T01840176  RH  095%=      5-min Rain = 0
KTAS 250747Z 09006KT 18/18 A2995 RMK A01 T01840176  RH  095%=      5-min Rain = 0
KTAS 250748Z 10006KT 18/18 A2995 RMK A01 T01840176  RH  095%=      5-min Rain = 0
KTAS 250749Z 09006KT 19/18 A2995 RMK A01 T01850177  RH  095%=      5-min Rain = 0
KTAS 250750Z 09006KT 19/18 A2995 RMK A01 T01850177  RH  095%=      5-min Rain = 0
KTAS 250751Z 08006KT 19/18 A2995 RMK A01 T01850177  RH  095%=      5-min Rain = 0
KTAS 250752Z 08005KT 19/18 A2995 RMK A01 T01850177  RH  095%=      5-min Rain = 0
KTAS 250753Z 08006KT 19/18 A2995 RMK A01 T01850177  RH  095%=      5-min Rain = 0
KTAS 250754Z 08007KT 19/18 A2995 RMK A01 T01850177  RH  095%=      5-min Rain = 0
KTAS 250755Z 08007KT 19/18 A2995 RMK A01 T01850176  RH  095%=      5-min Rain = 0
KTAS 250756Z 08008KT 19/18 A2995 RMK A01 T01850176  RH  095%=      5-min Rain = 0
KTAS 250757Z 08007KT 19/18 A2995 RMK A01 T01850176  RH  095%=      5-min Rain = 0
KTAS 250758Z 08008KT 19/18 A2995 RMK A01 T01850176  RH  095%=      5-min Rain = 0
KTAS 250759Z 08007KT 19/18 A2995 RMK A01 T01850177  RH  095%=      5-min Rain = 0
KTAS 250800Z 08008KT 19/18 A2995 RMK A01 T01850177  RH  095%=      5-min Rain = 0
KTAS 250801Z 09008KT 19/18 A2995 RMK A01 T01850177  RH  095%=      5-min Rain = 0
KTAS 250802Z 09007KT 19/18 A2995 RMK A01 T01850177  RH  095%=      5-min Rain = 0
KTAS 250803Z 09007KT 19/18 A2995 RMK A01 T01850177  RH  095%=      5-min Rain = 0
KTAS 250804Z 09007KT 19/18 A2995 RMK A01 T01850177  RH  095%=      5-min Rain = 0
KTAS 250805Z 09008KT 19/18 A2995 RMK A01 T01850177  RH  095%=      5-min Rain = 0
KTAS 250806Z 09008KT 19/18 A2995 RMK A01 T01850177  RH  095%=      5-min Rain = 0
KTAS 250807Z 10007KT 19/18 A2995 RMK A01 T01850177  RH  095%=      5-min Rain = 0
KTAS 250808Z 10008KT 19/18 A2995 RMK A01 T01860178  RH  095%=      5-min Rain = 0
KTAS 250809Z 10008KT 19/18 A2995 RMK A01 T01870178  RH  094%=      5-min Rain = 0
KTAS 250810Z 10008KT 19/18 A2995 RMK A01 T01880178  RH  094%=      5-min Rain = 0
KTAS 250811Z 10009KT 19/18 A2995 RMK A01 T01880178  RH  094%=      5-min Rain = 0
KTAS 250812Z 10007KT 19/18 A2995 RMK A01 T01890178  RH  093%=      5-min Rain = 0
KTAS 250813Z 10009KT 19/18 A2995 RMK A01 T01890178  RH  093%=      5-min Rain = 0
KTAS 250814Z 10008KT 19/18 A2995 RMK A01 T01890178  RH  093%=      5-min Rain = 0
KTAS 250815Z 10009KT 19/18 A2995 RMK A01 T01890178  RH  093%=      5-min Rain = 0
KTAS 250816Z 09008KT 19/18 A2995 RMK A01 T01890178  RH  093%=      5-min Rain = 0
KTAS 250817Z 10009KT 19/18 A2995 RMK A01 T01890178  RH  093%=      5-min Rain = 0
KTAS 250818Z 10009KT 19/18 A2995 RMK A01 T01880177  RH  093%=      5-min Rain = 0
KTAS 250819Z 10008KT 19/18 A2995 RMK A01 T01880178  RH  094%=      5-min Rain = 0
KTAS 250820Z 10009KT 19/18 A2995 RMK A01 T01870177  RH  094%=      5-min Rain = 0
KTAS 250821Z 10008KT 19/18 A2995 RMK A01 T01870177  RH  094%=      5-min Rain = 0
KTAS 250822Z 10008KT 19/18 A2995 RMK A01 T01870178  RH  094%=      5-min Rain = 0
KTAS 250823Z 10009KT 19/18 A2995 RMK A01 T01870178  RH  094%=      5-min Rain = 0
KTAS 250824Z 10008KT 19/18 A2995 RMK A01 T01870178  RH  094%=      5-min Rain = 0
KTAS 250825Z 10007KT 19/18 A2995 RMK A01 T01870178  RH  094%=      5-min Rain = 0
KTAS 250826Z 10009KT 19/18 A2995 RMK A01 T01870178  RH  094%=      5-min Rain = 0
KTAS 250827Z 10008KT 19/18 A2995 RMK A01 T01870178  RH  094%=      5-min Rain = 0
KTAS 250828Z 10008KT 19/18 A2995 RMK A01 T01870178  RH  094%=      5-min Rain = 0
KTAS 250829Z 10008KT 19/18 A2994 RMK A01 T01870178  RH  094%=      5-min Rain = 0
KTAS 250830Z 10007KT 19/18 A2994 RMK A01 T01870178  RH  094%=      5-min Rain = 0
KTAS 250831Z 10007KT 19/18 A2994 RMK A01 T01870178  RH  094%=      5-min Rain = 0
KTAS 250832Z 10008KT 19/18 A2994 RMK A01 T01870178  RH  094%=      5-min Rain = 0
KTAS 250833Z 10007KT 19/18 A2994 RMK A01 T01870178  RH  094%=      5-min Rain = 0
KTAS 250834Z 10006KT 19/18 A2994 RMK A01 T01880178  RH  094%=      5-min Rain = 0
KTAS 250835Z 10007KT 19/18 A2994 RMK A01 T01880179  RH  094%=      5-min Rain = 0
KTAS 250836Z 10007KT 19/18 A2994 RMK A01 T01880179  RH  094%=      5-min Rain = 0
KTAS 250837Z 10007KT 19/18 A2994 RMK A01 T01880179  RH  094%=      5-min Rain = 0
KTAS 250838Z 10007KT 19/18 A2994 RMK A01 T01880179  RH  094%=      5-min Rain = 0
KTAS 250839Z 10007KT 19/18 A2994 RMK A01 T01890180  RH  094%=      5-min Rain = 0
KTAS 250840Z 10006KT 19/18 A2995 RMK A01 T01890179  RH  094%=      5-min Rain = 0
KTAS 250841Z 10006KT 19/18 A2995 RMK A01 T01890179  RH  094%=      5-min Rain = 0
KTAS 250842Z 10006KT 19/18 A2995 RMK A01 T01890180  RH  094%=      5-min Rain = 0
KTAS 250843Z 10005KT 19/18 A2995 RMK A01 T01890179  RH  094%=      5-min Rain = 0
KTAS 250844Z 10005KT 19/18 A2995 RMK A01 T01890180  RH  094%=      5-min Rain = 0
KTAS 250845Z 10006KT 19/18 A2995 RMK A01 T01900180  RH  094%=      5-min Rain = 0
KTAS 250846Z 10006KT 19/18 A2995 RMK A01 T01900180  RH  094%=      5-min Rain = 0
KTAS 250847Z 10006KT 19/18 A2994 RMK A01 T01900180  RH  094%=      5-min Rain = 0
KTAS 250848Z 10006KT 19/18 A2994 RMK A01 T01900180  RH  094%=      5-min Rain = 0
KTAS 250849Z 10006KT 19/18 A2994 RMK A01 T01910180  RH  094%=      5-min Rain = 0
KTAS 250850Z 10005KT 19/18 A2994 RMK A01 T01910180  RH  094%=      5-min Rain = 0
KTAS 250851Z 10006KT 19/18 A2994 RMK A01 T01910181  RH  094%=      5-min Rain = 0
KTAS 250852Z 09006KT 19/18 A2994 RMK A01 T01910181  RH  093%=      5-min Rain = 0
KTAS 250853Z 10005KT 19/18 A2994 RMK A01 T01910181  RH  093%=      5-min Rain = 0
KTAS 250854Z 10006KT 19/18 A2994 RMK A01 T01910181  RH  094%=      5-min Rain = 0
KTAS 250855Z 11006KT 19/18 A2994 RMK A01 T01910181  RH  094%=      5-min Rain = 0
KTAS 250856Z 10005KT 19/18 A2994 RMK A01 T01910181  RH  094%=      5-min Rain = 0
KTAS 250857Z 11006KT 19/18 A2994 RMK A01 T01910181  RH  094%=      5-min Rain = 0
KTAS 250858Z 12007KT 19/18 A2994 RMK A01 T01920182  RH  094%=      5-min Rain = 0
KTAS 250859Z 12008KT 20/18 A2994 RMK A01 T01950183  RH  093%=      5-min Rain = 0
KTAS 250900Z 12008G13KT 20/18 A2994 RMK A01 T01970183  RH  092%=      5-min Rain = 0
KTAS 250901Z 12009KT 20/18 A2994 RMK A01 T01990183  RH  091%=      5-min Rain = 0
KTAS 250902Z 11007KT 20/18 A2994 RMK A01 T02000183  RH  090%=      5-min Rain = 0
KTAS 250903Z 12008KT 20/18 A2994 RMK A01 T02010183  RH  089%=      5-min Rain = 0
KTAS 250904Z 12009KT 20/18 A2994 RMK A01 T02020183  RH  089%=      5-min Rain = 0
KTAS 250905Z 12008KT 20/18 A2994 RMK A01 T02020183  RH  089%=      5-min Rain = 0
KTAS 250906Z 12006KT 20/18 A2994 RMK A01 T02030183  RH  088%=      5-min Rain = 0
KTAS 250907Z 12008KT 20/18 A2994 RMK A01 T02030183  RH  089%=      5-min Rain = 0
KTAS 250908Z 12008KT 20/18 A2994 RMK A01 T02020183  RH  089%=      5-min Rain = 0
KTAS 250909Z 12008KT 20/18 A2994 RMK A01 T02030183  RH  088%=      5-min Rain = 0
KTAS 250910Z 12008KT 20/18 A2994 RMK A01 T02030183  RH  088%=      5-min Rain = 0
KTAS 250911Z 13009KT 20/18 A2994 RMK A01 T02030183  RH  088%=      5-min Rain = 0
KTAS 250912Z 12007KT 20/18 A2994 RMK A01 T02030183  RH  088%=      5-min Rain = 0
KTAS 250913Z 12008KT 20/18 A2995 RMK A01 T02030183  RH  088%=      5-min Rain = 0
KTAS 250914Z 13009KT 20/18 A2995 RMK A01 T02030183  RH  088%=      5-min Rain = 0
KTAS 250915Z 13009KT 20/18 A2995 RMK A01 T02040184  RH  088%=      5-min Rain = 0
KTAS 250916Z 13008KT 20/18 A2994 RMK A01 T02040184  RH  088%=      5-min Rain = 0
KTAS 250917Z 12008KT 20/18 A2994 RMK A01 T02040184  RH  088%=      5-min Rain = 0
KTAS 250918Z 12006KT 20/18 A2994 RMK A01 T02040184  RH  088%=      5-min Rain = 0
KTAS 250919Z 12008KT 20/18 A2994 RMK A01 T02040183  RH  088%=      5-min Rain = 0
KTAS 250920Z 13008G13KT 20/18 A2994 RMK A01 T02030184  RH  088%=      5-min Rain = 0
KTAS 250921Z 12010KT 20/18 A2994 RMK A01 T02030184  RH  088%=      5-min Rain = 0
KTAS 250922Z 12012KT 21/18 A2995 RMK A01 T02050184  RH  088%=      5-min Rain = 0
KTAS 250923Z 12010KT 21/18 A2995 RMK A01 T02050184  RH  088%=      5-min Rain = 0
KTAS 250924Z 12012KT 21/18 A2995 RMK A01 T02050184  RH  088%=      5-min Rain = 0
KTAS 250925Z 12011KT 21/19 A2995 RMK A01 T02060185  RH  088%=      5-min Rain = 0
KTAS 250926Z 12011KT 21/19 A2994 RMK A01 T02060185  RH  087%=      5-min Rain = 0
KTAS 250927Z 13012KT 21/19 A2994 RMK A01 T02070185  RH  087%=      5-min Rain = 0
KTAS 250928Z 12011KT 21/19 A2994 RMK A01 T02070185  RH  087%=      5-min Rain = 0
KTAS 250929Z 12012KT 21/19 A2995 RMK A01 T02070185  RH  087%=      5-min Rain = 0
KTAS 250930Z 12010KT 21/19 A2995 RMK A01 T02070185  RH  087%=      5-min Rain = 0
KTAS 250931Z 13011KT 21/19 A2995 RMK A01 T02070185  RH  087%=      5-min Rain = 0
KTAS 250932Z 13010KT 21/19 A2995 RMK A01 T02070186  RH  088%=      5-min Rain = 0
KTAS 250933Z 13011KT 21/19 A2995 RMK A01 T02070186  RH  088%=      5-min Rain = 0
KTAS 250934Z 12011KT 21/19 A2995 RMK A01 T02070186  RH  087%=      5-min Rain = 0
KTAS 250935Z 13011KT 21/19 A2995 RMK A01 T02070186  RH  088%=      5-min Rain = 0
KTAS 250936Z 12013KT 21/19 A2995 RMK A01 T02070186  RH  087%=      5-min Rain = 0
KTAS 250937Z 13011KT 21/19 A2995 RMK A01 T02080186  RH  087%=      5-min Rain = 0
KTAS 250938Z 13010KT 21/19 A2995 RMK A01 T02080186  RH  087%=      5-min Rain = 0
KTAS 250939Z 13013KT 21/19 A2995 RMK A01 T02080186  RH  087%=      5-min Rain = 0
KTAS 250940Z 13012KT 21/19 A2995 RMK A01 T02080186  RH  087%=      5-min Rain = 0
KTAS 250941Z 13012KT 21/19 A2995 RMK A01 T02080186  RH  087%=      5-min Rain = 0
KTAS 250942Z 13010KT 21/19 A2995 RMK A01 T02080186  RH  087%=      5-min Rain = 0
KTAS 250943Z 13010G16KT 21/19 A2995 RMK A01 T02080186  RH  087%=      5-min Rain = 0
KTAS 250944Z 13011KT 21/19 A2995 RMK A01 T02080186  RH  087%=      5-min Rain = 0
KTAS 250945Z 12012KT 21/19 A2995 RMK A01 T02080186  RH  087%=      5-min Rain = 0
KTAS 250946Z 13013KT 21/19 A2995 RMK A01 T02080186  RH  087%=      5-min Rain = 0
KTAS 250947Z 13014KT 21/19 A2995 RMK A01 T02080186  RH  087%=      5-min Rain = 0
KTAS 250948Z 13013KT 21/19 A2995 RMK A01 T02080186  RH  087%=      5-min Rain = 0
KTAS 250949Z 13012KT 21/19 A2995 RMK A01 T02080186  RH  087%=      5-min Rain = 0
KTAS 250950Z 13014KT 21/19 A2995 RMK A01 T02080186  RH  087%=      5-min Rain = 0
KTAS 250951Z 13015KT 21/19 A2995 RMK A01 T02080186  RH  087%=      5-min Rain = 0
KTAS 250952Z 13015KT 21/19 A2995 RMK A01 T02080186  RH  087%=      5-min Rain = 0
KTAS 250953Z 13013KT 21/19 A2995 RMK A01 T02080186  RH  087%=      5-min Rain = 0
KTAS 250954Z 13016KT 21/19 A2995 RMK A01 T02070186  RH  087%=      5-min Rain = 0
KTAS 250955Z 13015KT 21/19 A2995 RMK A01 T02070185  RH  087%=      5-min Rain = 0
KTAS 250956Z 13013KT 21/19 A2995 RMK A01 T02070185  RH  087%=      5-min Rain = 0
KTAS 250957Z 13014KT 21/19 A2995 RMK A01 T02070186  RH  087%=      5-min Rain = 0
KTAS 250958Z 13012KT 21/19 A2995 RMK A01 T02070186  RH  088%=      5-min Rain = 0
KTAS 250959Z 13015KT 21/19 A2995 RMK A01 T02060186  RH  088%=      5-min Rain = 0
KTAS 251000Z 13014KT 21/19 A2995 RMK A01 T02070185  RH  088%=      5-min Rain = 0
KTAS 251001Z 13013KT 21/19 A2995 RMK A01 T02060186  RH  088%=      5-min Rain = 0
KTAS 251002Z 13014KT 21/19 A2995 RMK A01 T02060186  RH  088%=      5-min Rain = 0
KTAS 251003Z 13015KT 21/19 A2995 RMK A01 T02060185  RH  088%=      5-min Rain = 0
KTAS 251004Z 13014KT 21/19 A2995 RMK A01 T02060185  RH  088%=      5-min Rain = 0
KTAS 251005Z 13013KT 21/19 A2995 RMK A01 T02060186  RH  088%=      5-min Rain = 0
KTAS 251006Z 13013KT 21/19 A2995 RMK A01 T02060186  RH  088%=      5-min Rain = 0
KTAS 251007Z 13012KT 21/19 A2995 RMK A01 T02060186  RH  088%=      5-min Rain = 0
KTAS 251008Z 14014KT 21/19 A2995 RMK A01 T02060186  RH  088%=      5-min Rain = 0
KTAS 251009Z 13012KT 21/19 A2995 RMK A01 T02050185  RH  088%=      5-min Rain = 0
KTAS 251010Z 13015KT 21/19 A2995 RMK A01 T02050185  RH  088%=      5-min Rain = 0
KTAS 251011Z 13013KT 21/19 A2995 RMK A01 T02050185  RH  088%=      5-min Rain = 0
KTAS 251012Z 13013KT 21/19 A2995 RMK A01 T02050185  RH  088%=      5-min Rain = 0
KTAS 251013Z 13013KT 21/19 A2995 RMK A01 T02050185  RH  088%=      5-min Rain = 0
KTAS 251014Z 13013KT 21/19 A2995 RMK A01 T02050185  RH  088%=      5-min Rain = 0
KTAS 251015Z 13011KT 21/19 A2995 RMK A01 T02050185  RH  089%=      5-min Rain = 0
KTAS 251016Z 13010KT 20/19 A2995 RMK A01 T02040185  RH  089%=      5-min Rain = 0
KTAS 251017Z 14012KT 20/19 A2995 RMK A01 T02040185  RH  089%=      5-min Rain = 0
KTAS 251018Z 13013KT 20/19 A2995 RMK A01 T02030185  RH  089%=      5-min Rain = 0
KTAS 251019Z 13010KT 20/18 A2995 RMK A01 T02030184  RH  089%=      5-min Rain = 0
KTAS 251020Z 13012KT 20/18 A2995 RMK A01 T02030184  RH  089%=      5-min Rain = 0
KTAS 251021Z 14012G17KT 20/19 A2995 RMK A01 T02030185  RH  089%=      5-min Rain = 0
KTAS 251022Z 13012KT 20/18 A2995 RMK A01 T02030184  RH  089%=      5-min Rain = 0
KTAS 251023Z 13012KT 20/18 A2995 RMK A01 T02030184  RH  089%=      5-min Rain = 0
KTAS 251024Z 13012KT 20/18 A2995 RMK A01 T02030184  RH  089%=      5-min Rain = 0
KTAS 251025Z 13013KT 20/18 A2995 RMK A01 T02020184  RH  089%=      5-min Rain = 0
KTAS 251026Z 13013KT 20/18 A2995 RMK A01 T02030184  RH  089%=      5-min Rain = 0
KTAS 251027Z 13013KT 20/18 A2995 RMK A01 T02030184  RH  089%=      5-min Rain = 0
KTAS 251028Z 13012KT 20/18 A2995 RMK A01 T02020184  RH  089%=      5-min Rain = 0
KTAS 251029Z 13012KT 20/18 A2996 RMK A01 T02020184  RH  089%=      5-min Rain = 0
KTAS 251030Z 14013KT 20/18 A2996 RMK A01 T02020184  RH  089%=      5-min Rain = 0
KTAS 251031Z 13014KT 20/18 A2996 RMK A01 T02020184  RH  089%=      5-min Rain = 0
KTAS 251032Z 14014KT 20/18 A2996 RMK A01 T02020184  RH  089%=      5-min Rain = 0
KTAS 251033Z 13015KT 20/18 A2996 RMK A01 T02020184  RH  089%=      5-min Rain = 0
KTAS 251034Z 13014KT 20/18 A2996 RMK A01 T02020184  RH  089%=      5-min Rain = 0
KTAS 251035Z 14013KT 20/18 A2996 RMK A01 T02030184  RH  089%=      5-min Rain = 0
KTAS 251036Z 13014KT 20/18 A2996 RMK A01 T02020184  RH  089%=      5-min Rain = 0
KTAS 251037Z 14012KT 20/18 A2996 RMK A01 T02020184  RH  089%=      5-min Rain = 0
KTAS 251038Z 14012KT 20/18 A2996 RMK A01 T02020184  RH  090%=      5-min Rain = 0
KTAS 251039Z 13013KT 20/18 A2996 RMK A01 T02010184  RH  090%=      5-min Rain = 0
KTAS 251040Z 14012KT 20/18 A2996 RMK A01 T02010184  RH  090%=      5-min Rain = 0
KTAS 251041Z 14014KT 20/18 A2996 RMK A01 T02010184  RH  090%=      5-min Rain = 0
KTAS 251042Z 14014KT 20/18 A2996 RMK A01 T02010184  RH  090%=      5-min Rain = 0
KTAS 251043Z 14015KT 20/18 A2996 RMK A01 T02010184  RH  090%=      5-min Rain = 0
KTAS 251044Z 14012KT 20/18 A2996 RMK A01 T02010184  RH  090%=      5-min Rain = 0
KTAS 251045Z 14012KT 20/18 A2996 RMK A01 T02010184  RH  090%=      5-min Rain = 0
KTAS 251046Z 14013G18KT 20/18 A2996 RMK A01 T02010184  RH  090%=      5-min Rain = 0
KTAS 251047Z 13011KT 20/18 A2996 RMK A01 T02010184  RH  090%=      5-min Rain = 0
KTAS 251048Z 13013KT 20/18 A2996 RMK A01 T02010184  RH  090%=      5-min Rain = 0
KTAS 251049Z 14012KT 20/18 A2996 RMK A01 T02000184  RH  090%=      5-min Rain = 0
KTAS 251050Z 13013KT 20/18 A2996 RMK A01 T02000184  RH  091%=      5-min Rain = 0
KTAS 251051Z 14011G16KT 20/18 A2996 RMK A01 T02000184  RH  091%=      5-min Rain = 0
KTAS 251052Z 13013KT 20/18 A2996 RMK A01 T02000184  RH  091%=      5-min Rain = 0
KTAS 251053Z 13011KT 20/18 A2996 RMK A01 T02000184  RH  091%=      5-min Rain = 0
KTAS 251054Z 13012KT 20/18 A2996 RMK A01 T02000184  RH  091%=      5-min Rain = 0
KTAS 251055Z 14012KT 20/18 A2996 RMK A01 T02000184  RH  091%=      5-min Rain = 0
KTAS 251056Z 14012KT 20/18 A2996 RMK A01 T02000184  RH  091%=      5-min Rain = 0
KTAS 251057Z 14013KT 20/18 A2996 RMK A01 T02000184  RH  091%=      5-min Rain = 0
KTAS 251058Z 13011KT 20/18 A2996 RMK A01 T02000184  RH  091%=      5-min Rain = 0
KTAS 251059Z 13010KT 20/18 A2996 RMK A01 T02000184  RH  091%=      5-min Rain = 0
KTAS 251100Z 13013KT 20/19 A2996 RMK A01 T02000185  RH  091%=      5-min Rain = 0
KTAS 251101Z 13012KT 20/19 A2996 RMK A01 T02000185  RH  091%=      5-min Rain = 0
KTAS 251102Z 13012KT 20/19 A2996 RMK A01 T02000185  RH  091%=      5-min Rain = 0
KTAS 251103Z 13010KT 20/19 A2996 RMK A01 T02000185  RH  091%=      5-min Rain = 0
KTAS 251104Z 14014KT 20/18 A2996 RMK A01 T01990184  RH  091%=      5-min Rain = 0
KTAS 251105Z 13010KT 20/18 A2996 RMK A01 T01990184  RH  091%=      5-min Rain = 0
KTAS 251106Z 13011KT 20/19 A2996 RMK A01 T01990185  RH  091%=      5-min Rain = 0
KTAS 251107Z 14011KT 20/19 A2996 RMK A01 T01990185  RH  091%=      5-min Rain = 0
KTAS 251108Z 14011KT 20/19 A2996 RMK A01 T01990185  RH  091%=      5-min Rain = 0
KTAS 251109Z 14011KT 20/19 A2996 RMK A01 T01990185  RH  091%=      5-min Rain = 0
KTAS 251110Z 14011KT 20/19 A2996 RMK A01 T01990185  RH  091%=      5-min Rain = 0
KTAS 251111Z 14012KT 20/19 A2996 RMK A01 T01990185  RH  091%=      5-min Rain = 0
KTAS 251112Z 14012KT 20/19 A2996 RMK A01 T01990185  RH  091%=      5-min Rain = 0
KTAS 251113Z 13014KT 20/19 A2996 RMK A01 T01990185  RH  091%=      5-min Rain = 0
KTAS 251114Z 13014KT 20/19 A2996 RMK A01 T01990185  RH  091%=      5-min Rain = 0
KTAS 251115Z 14013KT 20/19 A2996 RMK A01 T01990185  RH  091%=      5-min Rain = 0
KTAS 251116Z 13013KT 20/19 A2996 RMK A01 T01990185  RH  091%=      5-min Rain = 0
KTAS 251117Z 13012KT 20/19 A2996 RMK A01 T01990185  RH  091%=      5-min Rain = 0
KTAS 251118Z 13013KT 20/19 A2996 RMK A01 T01990185  RH  091%=      5-min Rain = 0
KTAS 251119Z 13012KT 20/19 A2996 RMK A01 T01990185  RH  091%=      5-min Rain = 0
KTAS 251120Z 14012KT 20/19 A2996 RMK A01 T01990185  RH  092%=      5-min Rain = 0
KTAS 251121Z 13012KT 20/19 A2996 RMK A01 T01990185  RH  092%=      5-min Rain = 0
KTAS 251122Z 13013KT 20/19 A2996 RMK A01 T01990185  RH  092%=      5-min Rain = 0
KTAS 251123Z 13011KT 20/19 A2996 RMK A01 T01990185  RH  092%=      5-min Rain = 0
KTAS 251124Z 14012KT 20/19 A2996 RMK A01 T01990185  RH  092%=      5-min Rain = 0
KTAS 251125Z 13013KT 20/19 A2996 RMK A01 T01990185  RH  092%=      5-min Rain = 0
KTAS 251126Z 14011KT 20/19 A2996 RMK A01 T01990186  RH  092%=      5-min Rain = 0
KTAS 251127Z 14013KT 20/19 A2996 RMK A01 T01990186  RH  092%=      5-min Rain = 0
KTAS 251128Z 14014KT 20/19 A2997 RMK A01 T01990186  RH  092%=      5-min Rain = 0
KTAS 251129Z 14013KT 20/19 A2997 RMK A01 T01990186  RH  092%=      5-min Rain = 0
KTAS 251130Z 14014KT 20/19 A2997 RMK A01 T02000186  RH  092%=      5-min Rain = 0
KTAS 251131Z 14011KT 20/19 A2997 RMK A01 T02000186  RH  092%=      5-min Rain = 0
KTAS 251132Z 14013KT 20/19 A2997 RMK A01 T01990186  RH  092%=      5-min Rain = 0
KTAS 251133Z 13012KT 20/19 A2997 RMK A01 T01990186  RH  092%=      5-min Rain = 0
KTAS 251134Z 14012KT 20/19 A2997 RMK A01 T01990186  RH  092%=      5-min Rain = 0
KTAS 251135Z 13013KT 20/19 A2997 RMK A01 T01990186  RH  092%=      5-min Rain = 0
KTAS 251136Z 13012KT 20/19 A2997 RMK A01 T01990186  RH  092%=      5-min Rain = 0
KTAS 251137Z 13012KT 20/19 A2997 RMK A01 T01990186  RH  092%=      5-min Rain = 0
KTAS 251138Z 14009KT 20/19 A2997 RMK A01 T01990187  RH  092%=      5-min Rain = 0
KTAS 251139Z 13011KT 20/19 A2997 RMK A01 T01990187  RH  092%=      5-min Rain = 0
KTAS 251140Z 14011KT 20/19 A2997 RMK A01 T01990187  RH  092%=      5-min Rain = 0
KTAS 251141Z 14012KT 20/19 A2997 RMK A01 T01990187  RH  092%=      5-min Rain = 0
KTAS 251142Z 14010KT 20/19 A2997 RMK A01 T01990187  RH  093%=      5-min Rain = 0
KTAS 251143Z 13012KT 20/19 A2997 RMK A01 T01990187  RH  093%=      5-min Rain = 0
KTAS 251144Z 13012KT 20/19 A2997 RMK A01 T01990187  RH  093%=      5-min Rain = 0
KTAS 251145Z 14013KT 20/19 A2997 RMK A01 T01990187  RH  093%=      5-min Rain = 0
KTAS 251146Z 14014KT 20/19 A2997 RMK A01 T01990187  RH  093%=      5-min Rain = 0
KTAS 251147Z 14012KT 20/19 A2997 RMK A01 T01990187  RH  093%=      5-min Rain = 0
KTAS 251148Z 14010KT 20/19 A2997 RMK A01 T01990187  RH  093%=      5-min Rain = 0
KTAS 251149Z 14011KT 20/19 A2997 RMK A01 T01990187  RH  093%=      5-min Rain = 0
KTAS 251150Z 14013KT 20/19 A2997 RMK A01 T01990187  RH  093%=      5-min Rain = 0
KTAS 251151Z 13011KT 20/19 A2997 RMK A01 T01990187  RH  093%=      5-min Rain = 0
KTAS 251152Z 13012KT 20/19 A2998 RMK A01 T01990187  RH  093%=      5-min Rain = 0
KTAS 251153Z 14012KT 20/19 A2998 RMK A01 T01990187  RH  093%=      5-min Rain = 0
KTAS 251154Z 14012KT 20/19 A2998 RMK A01 T01990187  RH  093%=      5-min Rain = 0
KTAS 251155Z 14009KT 20/19 A2998 RMK A01 T01990187  RH  093%=      5-min Rain = 0
KTAS 251156Z 14010KT 20/19 A2998 RMK A01 T01990187  RH  093%=      5-min Rain = 0
KTAS 251157Z 14009KT 20/19 A2998 RMK A01 T01990187  RH  093%=      5-min Rain = 0
KTAS 251158Z 14012KT 20/19 A2998 RMK A01 T01990187  RH  093%=      5-min Rain = 0
KTAS 251159Z 14008KT 20/19 A2998 RMK A01 T01980187  RH  093%=      5-min Rain = 0
KTAS 251200Z 15010KT 20/19 A2998 RMK A01 T01990187  RH  093%=      5-min Rain = 0
KTAS 251201Z 14010KT 20/19 A2998 RMK A01 T01990187  RH  093%=      5-min Rain = 0
KTAS 251202Z 14010KT 20/19 A2998 RMK A01 T01990187  RH  093%=      5-min Rain = 0
KTAS 251203Z 15010KT 20/19 A2998 RMK A01 T01990188  RH  093%=      5-min Rain = 0
KTAS 251204Z 14011KT 20/19 A2998 RMK A01 T01990188  RH  093%=      5-min Rain = 0
KTAS 251205Z 14009KT 20/19 A2998 RMK A01 T01990188  RH  093%=      5-min Rain = 0
KTAS 251206Z 14010KT 20/19 A2998 RMK A01 T01990188  RH  093%=      5-min Rain = 0
KTAS 251207Z 14010KT 20/19 A2998 RMK A01 T01990188  RH  093%=      5-min Rain = 0
KTAS 251208Z 13011KT 20/19 A2998 RMK A01 T01990188  RH  093%=      5-min Rain = 0
KTAS 251209Z 14011KT 20/19 A2998 RMK A01 T01990188  RH  093%=      5-min Rain = 0
KTAS 251210Z 14009KT 20/19 A2998 RMK A01 T01990188  RH  093%=      5-min Rain = 0
KTAS 251211Z 14010KT 20/19 A2998 RMK A01 T01990188  RH  093%=      5-min Rain = 0
KTAS 251212Z 14010KT 20/19 A2998 RMK A01 T01990188  RH  093%=      5-min Rain = 0
KTAS 251213Z 14010KT 20/19 A2998 RMK A01 T01990188  RH  094%=      5-min Rain = 0
KTAS 251214Z 14011KT 20/19 A2998 RMK A01 T01990188  RH  094%=      5-min Rain = 0
KTAS 251215Z 14012KT 20/19 A2998 RMK A01 T01980188  RH  094%=      5-min Rain = 0
KTAS 251216Z 14012KT 20/19 A2998 RMK A01 T01990188  RH  094%=      5-min Rain = 0
KTAS 251217Z 14011KT 20/19 A2999 RMK A01 T01990188  RH  094%=      5-min Rain = 0
KTAS 251218Z 14009G14KT 20/19 A2999 RMK A01 T01990188  RH  094%=      5-min Rain = 0
KTAS 251219Z 14009KT 20/19 A2999 RMK A01 T01980188  RH  094%=      5-min Rain = 0
KTAS 251220Z 14010KT 20/19 A2999 RMK A01 T01980188  RH  094%=      5-min Rain = 0
KTAS 251221Z 13011KT 20/19 A2999 RMK A01 T01980188  RH  094%=      5-min Rain = 0
KTAS 251222Z 13010KT 20/19 A2999 RMK A01 T01980188  RH  094%=      5-min Rain = 0
KTAS 251223Z 13011KT 20/19 A2999 RMK A01 T01980188  RH  094%=      5-min Rain = 0
KTAS 251224Z 13012KT 20/19 A2999 RMK A01 T01980188  RH  094%=      5-min Rain = 0
KTAS 251225Z 13011KT 20/19 A2999 RMK A01 T01980188  RH  094%=      5-min Rain = 0
KTAS 251226Z 13011KT 20/19 A2999 RMK A01 T01980188  RH  094%=      5-min Rain = 0
KTAS 251227Z 14015KT 20/19 A2999 RMK A01 T01970188  RH  094%=      5-min Rain = 0
KTAS 251228Z 14012KT 20/19 A2999 RMK A01 T01970188  RH  094%=      5-min Rain = 0
KTAS 251229Z 14010KT 20/19 A2999 RMK A01 T01970188  RH  094%=      5-min Rain = 0
KTAS 251230Z 13012KT 20/19 A2999 RMK A01 T01970188  RH  095%=      5-min Rain = 0
KTAS 251231Z 13012KT 20/19 A2999 RMK A01 T01970188  RH  095%=      5-min Rain = 0
KTAS 251232Z 13010KT 20/19 A2999 RMK A01 T01970188  RH  095%=      5-min Rain = 0
KTAS 251233Z 13011KT 20/19 A2999 RMK A01 T01970189  RH  095%=      5-min Rain = 0
KTAS 251234Z 13011KT 20/19 A2999 RMK A01 T01970188  RH  095%=      5-min Rain = 0
KTAS 251235Z 13011KT 20/19 A2999 RMK A01 T01970189  RH  095%=      5-min Rain = 0
KTAS 251236Z 13013KT 20/19 A2999 RMK A01 T01970189  RH  095%=      5-min Rain = 0
KTAS 251237Z 13011KT 20/19 A2999 RMK A01 T01970189  RH  095%=      5-min Rain = 0
KTAS 251238Z 13012KT 20/19 A2999 RMK A01 T01970189  RH  095%=      5-min Rain = 0
KTAS 251239Z 14012KT 20/19 A2999 RMK A01 T01970189  RH  095%=      5-min Rain = 0
KTAS 251240Z 13012KT 20/19 A2999 RMK A01 T01970188  RH  095%=      5-min Rain = 0
KTAS 251241Z 14013KT 20/19 A2999 RMK A01 T01970189  RH  095%=      5-min Rain = 0
KTAS 251242Z 14012KT 20/19 A2999 RMK A01 T01970188  RH  095%=      5-min Rain = 0
KTAS 251243Z 13010KT 20/19 A2999 RMK A01 T01970188  RH  095%=      5-min Rain = 0
KTAS 251244Z 14010KT 20/19 A2999 RMK A01 T01970189  RH  095%=      5-min Rain = 0
KTAS 251245Z 13010KT 20/19 A2999 RMK A01 T01970189  RH  095%=      5-min Rain = 0
KTAS 251246Z 13009KT 20/19 A2999 RMK A01 T01970189  RH  095%=      5-min Rain = 0
KTAS 251247Z 14010KT 20/19 A2999 RMK A01 T01970189  RH  095%=      5-min Rain = 0
KTAS 251248Z 14011KT 20/19 A30 RMK A01 T01970189  RH  095%=      5-min Rain = 0
KTAS 251249Z 14010KT 20/19 A30 RMK A01 T01970189  RH  095%=      5-min Rain = 0
KTAS 251250Z 13009KT 20/19 A30 RMK A01 T01970189  RH  095%=      5-min Rain = 0
KTAS 251251Z 14010KT 20/19 A30 RMK A01 T01970189  RH  095%=      5-min Rain = 0
KTAS 251252Z 14010KT 20/19 A30 RMK A01 T01970189  RH  095%=      5-min Rain = 0
KTAS 251253Z 14010KT 20/19 A30 RMK A01 T01970189  RH  095%=      5-min Rain = 0
KTAS 251254Z 13011KT 20/19 A30 RMK A01 T01970189  RH  095%=      5-min Rain = 0
KTAS 251255Z 13011KT 20/19 A30 RMK A01 T01970189  RH  095%=      5-min Rain = 0
KTAS 251256Z 13009KT 20/19 A30 RMK A01 T01970189  RH  095%=      5-min Rain = 0
KTAS 251257Z 13012KT 20/19 A30 RMK A01 T01970189  RH  095%=      5-min Rain = 0
KTAS 251258Z 13012KT 20/19 A30 RMK A01 T01970189  RH  095%=      5-min Rain = 0
KTAS 251259Z 14013KT 20/19 A30 RMK A01 T01970189  RH  095%=      5-min Rain = 0
KTAS 251300Z 14013KT 20/19 A30 RMK A01 T01970189  RH  095%=      5-min Rain = 0
KTAS 251301Z 13012KT 20/19 A30 RMK A01 T01970189  RH  095%=      5-min Rain = 0
KTAS 251302Z 13011KT 20/19 A30 RMK A01 T01970189  RH  095%=      5-min Rain = 0
KTAS 251303Z 12010KT 20/19 A30 RMK A01 T01970189  RH  095%=      5-min Rain = 0
KTAS 251304Z 14010KT 20/19 A30 RMK A01 T01970189  RH  095%=      5-min Rain = 0
KTAS 251305Z 13013KT 20/19 A30 RMK A01 T01970189  RH  095%=      5-min Rain = 0
KTAS 251306Z 13013KT 20/19 A30 RMK A01 T01970189  RH  095%=      5-min Rain = 0
KTAS 251307Z 14012KT 20/19 A30 RMK A01 T01970189  RH  095%=      5-min Rain = 0
KTAS 251308Z 14009KT 20/19 A30 RMK A01 T01970189  RH  095%=      5-min Rain = 0
KTAS 251309Z 14010KT 20/19 A30 RMK A01 T01970189  RH  095%=      5-min Rain = 0
KTAS 251310Z 13010KT 20/19 A30 RMK A01 T01970189  RH  095%=      5-min Rain = 0
KTAS 251311Z 13009KT 20/19 A30 RMK A01 T01970189  RH  095%=      5-min Rain = 0
KTAS 251312Z 13011KT 20/19 A30 RMK A01 T01970189  RH  095%=      5-min Rain = 0
KTAS 251313Z 13011KT 20/19 A30 RMK A01 T01970189  RH  095%=      5-min Rain = 0
KTAS 251314Z 13011KT 20/19 A30 RMK A01 T01970189  RH  095%=      5-min Rain = 0
KTAS 251315Z 13013KT 20/19 A30 RMK A01 T01970189  RH  095%=      5-min Rain = 0
KTAS 251316Z 13011KT 20/19 A30 RMK A01 T01970189  RH  095%=      5-min Rain = 0
KTAS 251317Z 13012KT 20/19 A30 RMK A01 T01970189  RH  095%=      5-min Rain = 0
KTAS 251318Z 13008KT 20/19 A30 RMK A01 T01970189  RH  095%=      5-min Rain = 0
KTAS 251319Z 13009KT 20/19 A30 RMK A01 T01970189  RH  095%=      5-min Rain = 0
KTAS 251320Z 13011KT 20/19 A30 RMK A01 T01970189  RH  095%=      5-min Rain = 0
KTAS 251321Z 13011KT 20/19 A30 RMK A01 T01970189  RH  095%=      5-min Rain = 0
KTAS 251322Z 13011KT 20/19 A30 RMK A01 T01970189  RH  095%=      5-min Rain = 0
KTAS 251323Z 14009KT 20/19 A3001 RMK A01 T01970189  RH  095%=      5-min Rain = 0
KTAS 251324Z 14009KT 20/19 A30 RMK A01 T01970189  RH  095%=      5-min Rain = 0
KTAS 251325Z 14011KT 20/19 A30 RMK A01 T01970189  RH  095%=      5-min Rain = 0
KTAS 251326Z 14011KT 20/19 A30 RMK A01 T01970189  RH  095%=      5-min Rain = 0
KTAS 251327Z 14009KT 20/19 A3001 RMK A01 T01970189  RH  095%=      5-min Rain = 0
KTAS 251328Z 14010KT 20/19 A3001 RMK A01 T01970189  RH  095%=      5-min Rain = 0
KTAS 251329Z 14009KT 20/19 A3001 RMK A01 T01970189  RH  095%=      5-min Rain = 0
KTAS 251330Z 14011KT 20/19 A3001 RMK A01 T01980190  RH  095%=      5-min Rain = 0
KTAS 251331Z 13011KT 20/19 A3001 RMK A01 T01980190  RH  095%=      5-min Rain = 0
KTAS 251332Z 13011KT 20/19 A3001 RMK A01 T01980190  RH  095%=      5-min Rain = 0
KTAS 251333Z 13010KT 20/19 A3001 RMK A01 T01980190  RH  095%=      5-min Rain = 0
KTAS 251334Z 14010KT 20/19 A3001 RMK A01 T01980190  RH  095%=      5-min Rain = 0
KTAS 251335Z 13011KT 20/19 A3001 RMK A01 T01980190  RH  095%=      5-min Rain = 0
KTAS 251336Z 14010KT 20/19 A3001 RMK A01 T01980190  RH  095%=      5-min Rain = 0
KTAS 251337Z 14010KT 20/19 A3001 RMK A01 T01980190  RH  095%=      5-min Rain = 0
KTAS 251338Z 14010KT 20/19 A3001 RMK A01 T01980190  RH  095%=      5-min Rain = 0
KTAS 251339Z 13010KT 20/19 A3001 RMK A01 T01980190  RH  095%=      5-min Rain = 0
KTAS 251340Z 13009KT 20/19 A3001 RMK A01 T01980190  RH  095%=      5-min Rain = 0
KTAS 251341Z 13011KT 20/19 A3001 RMK A01 T01990191  RH  095%=      5-min Rain = 0
KTAS 251342Z 13012KT 20/19 A3001 RMK A01 T01990190  RH  095%=      5-min Rain = 0
KTAS 251343Z 14012KT 20/19 A3001 RMK A01 T01990190  RH  095%=      5-min Rain = 0
KTAS 251344Z 13010KT 20/19 A3001 RMK A01 T01990190  RH  095%=      5-min Rain = 0
KTAS 251345Z 13011KT 20/19 A3001 RMK A01 T01990190  RH  095%=      5-min Rain = 0
KTAS 251346Z 14011KT 20/19 A3001 RMK A01 T01990190  RH  095%=      5-min Rain = 0
KTAS 251347Z 13009KT 20/19 A3001 RMK A01 T01990190  RH  095%=      5-min Rain = 0
KTAS 251348Z 13008KT 20/19 A3001 RMK A01 T01990190  RH  095%=      5-min Rain = 0
KTAS 251349Z 15009KT 20/19 A3001 RMK A01 T01990190  RH  095%=      5-min Rain = 0
KTAS 251350Z 14011KT 20/19 A3001 RMK A01 T01990190  RH  095%=      5-min Rain = 0
KTAS 251351Z 14012KT 20/19 A3001 RMK A01 T01990190  RH  095%=      5-min Rain = 0
KTAS 251352Z 14011KT 20/19 A3001 RMK A01 T01990190  RH  095%=      5-min Rain = 0
KTAS 251353Z 15011KT 20/19 A3001 RMK A01 T01990190  RH  095%=      5-min Rain = 0
KTAS 251354Z 13010KT 20/19 A3001 RMK A01 T01990191  RH  095%=      5-min Rain = 0
KTAS 251355Z 14010KT 20/19 A3001 RMK A01 T01990191  RH  095%=      5-min Rain = 0
KTAS 251356Z 14010KT 20/19 A3001 RMK A01 T01990191  RH  095%=      5-min Rain = 0
KTAS 251357Z 15008KT 20/19 A3002 RMK A01 T01990191  RH  095%=      5-min Rain = 0
KTAS 251358Z 14007KT 20/19 A3002 RMK A01 T02000192  RH  095%=      5-min Rain = 0
KTAS 251359Z 15007KT 20/19 A3002 RMK A01 T02000192  RH  095%=      5-min Rain = 0
KTAS 251400Z 14009KT 20/19 A3002 RMK A01 T02000192  RH  095%=      5-min Rain = 0
KTAS 251401Z 14010KT 20/19 A3002 RMK A01 T02000192  RH  095%=      5-min Rain = 0
KTAS 251402Z 14010KT 20/19 A3002 RMK A01 T02000191  RH  095%=      5-min Rain = 0
KTAS 251403Z 14010KT 20/19 A3002 RMK A01 T02000191  RH  095%=      5-min Rain = 0
KTAS 251404Z 14009KT 20/19 A3002 RMK A01 T02000191  RH  095%=      5-min Rain = 0
KTAS 251405Z 14009KT 20/19 A3002 RMK A01 T02000191  RH  095%=      5-min Rain = 0
KTAS 251406Z 15010KT 20/19 A3002 RMK A01 T02000191  RH  095%=      5-min Rain = 0
KTAS 251407Z 14011KT 20/19 A3002 RMK A01 T02000191  RH  095%=      5-min Rain = 0
KTAS 251408Z 14010KT 20/19 A3002 RMK A01 T02000191  RH  095%=      5-min Rain = 0
KTAS 251409Z 15008KT 20/19 A3002 RMK A01 T02000191  RH  095%=      5-min Rain = 0
KTAS 251410Z 14010KT 20/19 A3002 RMK A01 T02000191  RH  095%=      5-min Rain = 0
KTAS 251411Z 14010KT 20/19 A3002 RMK A01 T02000192  RH  095%=      5-min Rain = 0
KTAS 251412Z 14010KT 20/19 A3002 RMK A01 T02000192  RH  095%=      5-min Rain = 0
KTAS 251413Z 15011KT 20/19 A3002 RMK A01 T02000192  RH  095%=      5-min Rain = 0
KTAS 251414Z 15011KT 20/19 A3002 RMK A01 T02000192  RH  095%=      5-min Rain = 0
KTAS 251415Z 15010KT 20/19 A3002 RMK A01 T02000192  RH  095%=      5-min Rain = 0
KTAS 251416Z 14009KT 20/19 A3002 RMK A01 T02000192  RH  095%=      5-min Rain = 0
KTAS 251417Z 14009KT 20/19 A3002 RMK A01 T02000192  RH  095%=      5-min Rain = 0
KTAS 251418Z 15010KT 20/19 A3002 RMK A01 T02000192  RH  095%=      5-min Rain = 0
KTAS 251419Z 15011KT 20/19 A3002 RMK A01 T02000192  RH  095%=      5-min Rain = 0
KTAS 251420Z 15011KT 20/19 A3002 RMK A01 T02000192  RH  095%=      5-min Rain = 0
KTAS 251421Z 15011KT 20/19 A3002 RMK A01 T02000192  RH  095%=      5-min Rain = 0
KTAS 251422Z 13011KT 20/19 A3002 RMK A01 T02000192  RH  095%=      5-min Rain = 0
KTAS 251423Z 14010KT 20/19 A3002 RMK A01 T02000192  RH  095%=      5-min Rain = 0
KTAS 251424Z 14009KT 20/19 A3002 RMK A01 T02000192  RH  095%=      5-min Rain = 0
KTAS 251425Z 15012KT 20/19 A3002 RMK A01 T02000192  RH  095%=      5-min Rain = 0
KTAS 251426Z 14011KT 20/19 A3002 RMK A01 T01990192  RH  095%=      5-min Rain = 0
KTAS 251427Z 15010KT 20/19 A3002 RMK A01 T01990192  RH  095%=      5-min Rain = 0
KTAS 251428Z 13009KT 20/19 A3002 RMK A01 T01990192  RH  095%=      5-min Rain = 0
KTAS 251429Z 14008KT 20/19 A3002 RMK A01 T01990192  RH  096%=      5-min Rain = 0
KTAS 251430Z 15009KT 20/19 A3002 RMK A01 T02000193  RH  096%=      5-min Rain = 0
KTAS 251431Z 14010KT 20/19 A3002 RMK A01 T02000193  RH  096%=      5-min Rain = 0
KTAS 251432Z 13008KT 20/19 A3002 RMK A01 T01990192  RH  096%=      5-min Rain = 0
KTAS 251433Z 14008KT 20/19 A3002 RMK A01 T02000193  RH  096%=      5-min Rain = 0
KTAS 251434Z 14009KT 20/19 A3002 RMK A01 T02000193  RH  096%=      5-min Rain = 0
KTAS 251435Z 14009KT 20/19 A3002 RMK A01 T02000193  RH  096%=      5-min Rain = 0
KTAS 251436Z 14007KT 20/19 A3002 RMK A01 T02000193  RH  096%=      5-min Rain = 0
KTAS 251437Z 14008KT 20/19 A3002 RMK A01 T02000193  RH  096%=      5-min Rain = 0
KTAS 251438Z 14008KT 20/19 A3002 RMK A01 T02010193  RH  096%=      5-min Rain = 0
KTAS 251439Z 14009KT 20/19 A3002 RMK A01 T02010193  RH  096%=      5-min Rain = 0
KTAS 251440Z 14008KT 20/19 A3002 RMK A01 T02010193  RH  095%=      5-min Rain = 0
KTAS 251441Z 14009KT 20/19 A3002 RMK A01 T02010193  RH  095%=      5-min Rain = 0
KTAS 251442Z 14008KT 20/19 A3002 RMK A01 T02010193  RH  095%=      5-min Rain = 0
KTAS 251443Z 14011KT 20/19 A3002 RMK A01 T02010193  RH  095%=      5-min Rain = 0
KTAS 251444Z 13009KT 20/19 A3002 RMK A01 T02010193  RH  095%=      5-min Rain = 0
KTAS 251445Z 14008KT 20/19 A3002 RMK A01 T02010194  RH  095%=      5-min Rain = 0
KTAS 251446Z 15010KT 20/19 A3002 RMK A01 T02020194  RH  095%=      5-min Rain = 0
KTAS 251447Z 15008KT 20/19 A3002 RMK A01 T02020194  RH  095%=      5-min Rain = 0
KTAS 251448Z 14006KT 20/19 A3002 RMK A01 T02020194  RH  095%=      5-min Rain = 0
KTAS 251449Z 13009KT 20/19 A3002 RMK A01 T02030194  RH  095%=      5-min Rain = 0
KTAS 251450Z 14009KT 20/19 A3002 RMK A01 T02030194  RH  095%=      5-min Rain = 0
KTAS 251451Z 15009KT 20/19 A3001 RMK A01 T02030194  RH  095%=      5-min Rain = 0
KTAS 251452Z 15009KT 20/19 A3001 RMK A01 T02030193  RH  094%=      5-min Rain = 0
KTAS 251453Z 14011KT 20/19 A3002 RMK A01 T02030194  RH  094%=      5-min Rain = 0
KTAS 251454Z 14009KT 20/19 A3002 RMK A01 T02030194  RH  094%=      5-min Rain = 0
KTAS 251455Z 14009KT 20/19 A3002 RMK A01 T02040194  RH  094%=      5-min Rain = 0
KTAS 251456Z 15008KT 20/19 A3002 RMK A01 T02040194  RH  094%=      5-min Rain = 0
KTAS 251457Z 15008KT 21/20 A3002 RMK A01 T02050195  RH  094%=      5-min Rain = 0
KTAS 251458Z 15010KT 21/20 A3002 RMK A01 T02050195  RH  094%=      5-min Rain = 0
KTAS 251459Z 15010KT 21/19 A3002 RMK A01 T02050194  RH  093%=      5-min Rain = 0
KTAS 251500Z 16010KT 21/20 A3002 RMK A01 T02060195  RH  093%=      5-min Rain = 0
KTAS 251501Z 15010KT 21/20 A3002 RMK A01 T02060195  RH  093%=      5-min Rain = 0
KTAS 251502Z 14010KT 21/20 A3002 RMK A01 T02070195  RH  093%=      5-min Rain = 0
KTAS 251503Z 14012KT 21/20 A3002 RMK A01 T02070195  RH  093%=      5-min Rain = 0
KTAS 251504Z 14012KT 21/19 A3002 RMK A01 T02070194  RH  092%=      5-min Rain = 0
KTAS 251505Z 14013KT 21/19 A3002 RMK A01 T02070194  RH  092%=      5-min Rain = 0
KTAS 251506Z 16014KT 21/19 A3002 RMK A01 T02070194  RH  092%=      5-min Rain = 0
KTAS 251507Z 16011KT 21/19 A3002 RMK A01 T02070194  RH  092%=      5-min Rain = 0
KTAS 251508Z 15013KT 21/19 A3002 RMK A01 T02070194  RH  092%=      5-min Rain = 0
KTAS 251509Z 15010KT 21/19 A3002 RMK A01 T02080194  RH  092%=      5-min Rain = 0
KTAS 251510Z 15010KT 21/20 A3002 RMK A01 T02080195  RH  092%=      5-min Rain = 0
KTAS 251511Z 15009KT 21/20 A3002 RMK A01 T02090195  RH  092%=      5-min Rain = 0
KTAS 251512Z 15010KT 21/20 A3002 RMK A01 T02090196  RH  092%=      5-min Rain = 0
KTAS 251513Z 15011KT 21/20 A3002 RMK A01 T02090195  RH  092%=      5-min Rain = 0
KTAS 251514Z 15009KT 21/20 A3002 RMK A01 T02090195  RH  092%=      5-min Rain = 0
KTAS 251515Z 15010KT 21/20 A3002 RMK A01 T02090195  RH  092%=      5-min Rain = 0
KTAS 251516Z 15010KT 21/20 A3002 RMK A01 T02090195  RH  092%=      5-min Rain = 0
KTAS 251517Z 15011KT 21/20 A3002 RMK A01 T02090195  RH  092%=      5-min Rain = 0
KTAS 251518Z 14011KT 21/20 A3002 RMK A01 T02090195  RH  092%=      5-min Rain = 0
KTAS 251519Z 15012KT 21/20 A3002 RMK A01 T02090195  RH  092%=      5-min Rain = 0
KTAS 251520Z 16012KT 21/20 A3002 RMK A01 T02090195  RH  092%=      5-min Rain = 0
KTAS 251521Z 15011KT 21/19 A3002 RMK A01 T02090194  RH  092%=      5-min Rain = 0
KTAS 251522Z 15009KT 21/20 A3002 RMK A01 T02090195  RH  092%=      5-min Rain = 0
KTAS 251523Z 14011KT 21/20 A3002 RMK A01 T02090196  RH  092%=      5-min Rain = 0
KTAS 251524Z 14012KT 21/20 A3002 RMK A01 T02090195  RH  092%=      5-min Rain = 0
KTAS 251525Z 14014KT 21/20 A3002 RMK A01 T02090195  RH  092%=      5-min Rain = 0
KTAS 251526Z 14014KT 21/19 A3002 RMK A01 T02080194  RH  092%=      5-min Rain = 0
KTAS 251527Z 15013KT 21/19 A3002 RMK A01 T02080194  RH  092%=      5-min Rain = 0
KTAS 251528Z 16014KT 21/19 A3002 RMK A01 T02070194  RH  092%=      5-min Rain = 0
KTAS 251529Z 15010KT 21/20 A3002 RMK A01 T02070195  RH  093%=      5-min Rain = 0
KTAS 251530Z 15013KT 21/20 A3002 RMK A01 T02070195  RH  093%=      5-min Rain = 0
KTAS 251531Z 15012KT 21/20 A3002 RMK A01 T02070195  RH  092%=      5-min Rain = 0
KTAS 251532Z 15012KT 21/19 A3002 RMK A01 T02070194  RH  092%=      5-min Rain = 0
KTAS 251533Z 14012KT 21/20 A3002 RMK A01 T02080195  RH  092%=      5-min Rain = 0
KTAS 251534Z 14013KT 21/19 A3002 RMK A01 T02080194  RH  092%=      5-min Rain = 0
KTAS 251535Z 14013KT 21/19 A3002 RMK A01 T02080194  RH  092%=      5-min Rain = 0
KTAS 251536Z 15013KT 21/20 A3002 RMK A01 T02080195  RH  092%=      5-min Rain = 0
KTAS 251537Z 15013KT 21/20 A3002 RMK A01 T02080195  RH  092%=      5-min Rain = 0
KTAS 251538Z 15011KT 21/20 A3002 RMK A01 T02080195  RH  092%=      5-min Rain = 0
KTAS 251539Z 15011KT 21/20 A3002 RMK A01 T02080195  RH  092%=      5-min Rain = 0
KTAS 251540Z 15011KT 21/20 A3002 RMK A01 T02080196  RH  093%=      5-min Rain = 0
KTAS 251541Z 15013KT 21/20 A3002 RMK A01 T02080195  RH  092%=      5-min Rain = 0
KTAS 251542Z 15014KT 21/20 A3002 RMK A01 T02080195  RH  092%=      5-min Rain = 0
KTAS 251543Z 15013KT 21/19 A3002 RMK A01 T02070194  RH  092%=      5-min Rain = 0
KTAS 251544Z 15014KT 21/20 A3002 RMK A01 T02070195  RH  093%=      5-min Rain = 0
KTAS 251545Z 15013KT 21/20 A3002 RMK A01 T02070195  RH  093%=      5-min Rain = 0
KTAS 251546Z 15010KT 21/20 A3002 RMK A01 T02070195  RH  093%=      5-min Rain = 0
KTAS 251547Z 15009KT 21/20 A3002 RMK A01 T02080196  RH  093%=      5-min Rain = 0
KTAS 251548Z 16014KT 21/20 A3002 RMK A01 T02080196  RH  093%=      5-min Rain = 0
KTAS 251549Z 15012KT 21/20 A3002 RMK A01 T02070195  RH  093%=      5-min Rain = 0
KTAS 251550Z 14012KT 21/20 A3002 RMK A01 T02070195  RH  093%=      5-min Rain = 0
KTAS 251551Z 15012KT 21/20 A3002 RMK A01 T02070195  RH  093%=      5-min Rain = 0
KTAS 251552Z 15012KT 21/20 A3002 RMK A01 T02070195  RH  093%=      5-min Rain = 0
KTAS 251553Z 15011KT 21/20 A3002 RMK A01 T02070195  RH  093%=      5-min Rain = 0
KTAS 251554Z 15012KT 21/20 A3002 RMK A01 T02070195  RH  093%=      5-min Rain = 0
KTAS 251555Z 15010KT 21/20 A3002 RMK A01 T02060195  RH  093%=      5-min Rain = 0
KTAS 251556Z 15011KT 21/20 A3002 RMK A01 T02060195  RH  093%=      5-min Rain = 0
KTAS 251557Z 15012KT 21/20 A3002 RMK A01 T02060195  RH  093%=      5-min Rain = 0
KTAS 251558Z 15012KT 21/20 A3002 RMK A01 T02060195  RH  093%=      5-min Rain = 0
KTAS 251559Z 16012KT 21/20 A3002 RMK A01 T02060195  RH  093%=      5-min Rain = 0
KTAS 251600Z 16013KT 21/20 A3002 RMK A01 T02060195  RH  093%=      5-min Rain = 0
KTAS 251601Z 15013KT 21/20 A3002 RMK A01 T02060195  RH  093%=      5-min Rain = 0
KTAS 251602Z 16013KT 21/20 A3002 RMK A01 T02060195  RH  093%=      5-min Rain = 0
KTAS 251603Z 16013KT 21/20 A3002 RMK A01 T02060195  RH  093%=      5-min Rain = 0
KTAS 251604Z 15012KT 21/20 A3002 RMK A01 T02060195  RH  093%=      5-min Rain = 0
KTAS 251605Z 15009KT 21/20 A3002 RMK A01 T02060195  RH  093%=      5-min Rain = 0
KTAS 251606Z 16010KT 21/20 A3002 RMK A01 T02060196  RH  094%=      5-min Rain = 0
KTAS 251607Z 15010KT 21/20 A3002 RMK A01 T02070196  RH  094%=      5-min Rain = 0
KTAS 251608Z 16015KT 21/20 A3002 RMK A01 T02060196  RH  093%=      5-min Rain = 0
KTAS 251609Z 15013KT 21/20 A3002 RMK A01 T02060195  RH  093%=      5-min Rain = 0
KTAS 251610Z 15015KT 21/20 A3002 RMK A01 T02060195  RH  093%=      5-min Rain = 0
KTAS 251611Z 15013KT 21/20 A3002 RMK A01 T02060195  RH  093%=      5-min Rain = 0
KTAS 251612Z 16011KT 21/20 A3002 RMK A01 T02070195  RH  093%=      5-min Rain = 0
KTAS 251613Z 15012KT 21/20 A3002 RMK A01 T02070196  RH  093%=      5-min Rain = 0
KTAS 251614Z 15012KT 21/20 A3002 RMK A01 T02070196  RH  093%=      5-min Rain = 0
KTAS 251615Z 15014KT 21/20 A3002 RMK A01 T02070196  RH  093%=      5-min Rain = 0
KTAS 251616Z 15015KT 21/20 A3002 RMK A01 T02070195  RH  093%=      5-min Rain = 0
KTAS 251617Z 16012KT 21/20 A3002 RMK A01 T02080196  RH  093%=      5-min Rain = 0
KTAS 251618Z 15012KT 21/20 A3002 RMK A01 T02080196  RH  093%=      5-min Rain = 0
KTAS 251619Z 16013G18KT 21/20 A3002 RMK A01 T02080196  RH  093%=      5-min Rain = 0
KTAS 251620Z 15015KT 21/20 A3002 RMK A01 T02080196  RH  093%=      5-min Rain = 0
KTAS 251621Z 15016G21KT 21/20 A3002 RMK A01 T02080196  RH  093%=      5-min Rain = 0
KTAS 251622Z 15017KT 21/20 A3002 RMK A01 T02070195  RH  093%=      5-min Rain = 0
KTAS 251623Z 15015KT 21/20 A3002 RMK A01 T02070195  RH  093%=      5-min Rain = 0
KTAS 251624Z 16013KT 21/20 A3002 RMK A01 T02060195  RH  093%=      5-min Rain = 0
KTAS 251625Z 15013KT 21/20 A3002 RMK A01 T02060195  RH  093%=      5-min Rain = 0
KTAS 251626Z 15011KT 21/20 A3002 RMK A01 T02070195  RH  093%=      5-min Rain = 0
KTAS 251627Z 15013KT 21/20 A3002 RMK A01 T02070196  RH  093%=      5-min Rain = 0
KTAS 251628Z 15011KT 21/20 A3002 RMK A01 T02070196  RH  093%=      5-min Rain = 0
KTAS 251629Z 15011KT 21/20 A3002 RMK A01 T02080197  RH  093%=      5-min Rain = 0
KTAS 251630Z 15012KT 21/20 A3002 RMK A01 T02080197  RH  093%=      5-min Rain = 0
KTAS 251631Z 14012KT 21/20 A3002 RMK A01 T02090196  RH  093%=      5-min Rain = 0
KTAS 251632Z 14014KT 21/20 A3002 RMK A01 T02090196  RH  092%=      5-min Rain = 0
KTAS 251633Z 15013KT 21/20 A3002 RMK A01 T02090196  RH  092%=      5-min Rain = 0
KTAS 251634Z 15015KT 21/20 A3002 RMK A01 T02090196  RH  092%=      5-min Rain = 0
KTAS 251635Z 14013KT 21/20 A3002 RMK A01 T02090196  RH  092%=      5-min Rain = 0
KTAS 251636Z 14011KT 21/20 A3002 RMK A01 T02090196  RH  093%=      5-min Rain = 0
KTAS 251637Z 15015KT 21/20 A3002 RMK A01 T02090196  RH  092%=      5-min Rain = 0
KTAS 251638Z 15016KT 21/20 A3002 RMK A01 T02090196  RH  092%=      5-min Rain = 0
KTAS 251639Z 15016KT 21/20 A3002 RMK A01 T02090196  RH  092%=      5-min Rain = 0
KTAS 251640Z 15013KT 21/20 A3002 RMK A01 T02090196  RH  092%=      5-min Rain = 0
KTAS 251641Z 14014KT 21/20 A3002 RMK A01 T02090196  RH  092%=      5-min Rain = 0
KTAS 251642Z 14014KT 21/20 A3002 RMK A01 T02100196  RH  092%=      5-min Rain = 0
KTAS 251643Z 14015KT 21/20 A3001 RMK A01 T02100196  RH  092%=      5-min Rain = 0
KTAS 251644Z 14013KT 21/20 A3001 RMK A01 T02100196  RH  092%=      5-min Rain = 0
KTAS 251645Z 15012KT 21/20 A3002 RMK A01 T02100197  RH  092%=      5-min Rain = 0
KTAS 251646Z 14011KT 21/20 A3002 RMK A01 T02100197  RH  092%=      5-min Rain = 0
KTAS 251647Z 15014KT 21/20 A3001 RMK A01 T02100197  RH  092%=      5-min Rain = 0
KTAS 251648Z 15014KT 21/20 A3002 RMK A01 T02100197  RH  092%=      5-min Rain = 0
KTAS 251649Z 15012G17KT 21/20 A3001 RMK A01 T02110197  RH  092%=      5-min Rain = 0
KTAS 251650Z 15013KT 21/20 A3001 RMK A01 T02110197  RH  092%=      5-min Rain = 0
KTAS 251651Z 14014G19KT 21/20 A3002 RMK A01 T02110197  RH  092%=      5-min Rain = 0
KTAS 251652Z 15014KT 21/20 A3002 RMK A01 T02110196  RH  091%=      5-min Rain = 0
KTAS 251653Z 14015KT 21/20 A3002 RMK A01 T02110197  RH  091%=      5-min Rain = 0
KTAS 251654Z 15012KT 21/20 A3002 RMK A01 T02110196  RH  091%=      5-min Rain = 0
KTAS 251655Z 15013KT 21/20 A3002 RMK A01 T02110196  RH  091%=      5-min Rain = 0
KTAS 251656Z 15012KT 21/20 A3002 RMK A01 T02110197  RH  092%=      5-min Rain = 0
KTAS 251657Z 15012KT 21/20 A3002 RMK A01 T02110197  RH  092%=      5-min Rain = 0
KTAS 251658Z 15013KT 21/20 A3002 RMK A01 T02120197  RH  091%=      5-min Rain = 0
KTAS 251659Z 15012KT 21/20 A3002 RMK A01 T02120197  RH  091%=      5-min Rain = 0
KTAS 251700Z 15012G17KT 21/20 A3002 RMK A01 T02120197  RH  091%=      5-min Rain = 0
KTAS 251701Z 14011KT 21/20 A3002 RMK A01 T02120197  RH  091%=      5-min Rain = 0
KTAS 251702Z 14014G19KT 21/20 A3002 RMK A01 T02130198  RH  091%=      5-min Rain = 0
KTAS 251703Z 15011KT 21/20 A3002 RMK A01 T02140198  RH  091%=      5-min Rain = 0
KTAS 251704Z 15012KT 21/20 A3001 RMK A01 T02140198  RH  091%=      5-min Rain = 0
KTAS 251705Z 15016KT 21/20 A3001 RMK A01 T02140198  RH  090%=      5-min Rain = 0
KTAS 251706Z 15015KT 21/20 A3001 RMK A01 T02140197  RH  090%=      5-min Rain = 0
KTAS 251707Z 15011KT 21/20 A3001 RMK A01 T02140197  RH  090%=      5-min Rain = 0
KTAS 251708Z 15013KT 22/20 A3001 RMK A01 T02150198  RH  090%=      5-min Rain = 0
KTAS 251709Z 15012KT 22/20 A3001 RMK A01 T02150198  RH  090%=      5-min Rain = 0
KTAS 251710Z 14013KT 22/20 A3001 RMK A01 T02150198  RH  090%=      5-min Rain = 0
KTAS 251711Z 14014KT 22/20 A3001 RMK A01 T02150197  RH  090%=      5-min Rain = 0
KTAS 251712Z 14013KT 22/20 A3001 RMK A01 T02150197  RH  090%=      5-min Rain = 0
KTAS 251713Z 15012KT 22/20 A3001 RMK A01 T02150198  RH  090%=      5-min Rain = 0
KTAS 251714Z 15014KT 22/20 A3001 RMK A01 T02160198  RH  090%=      5-min Rain = 0
KTAS 251715Z 15012KT 22/20 A3001 RMK A01 T02160198  RH  089%=      5-min Rain = 0
KTAS 251716Z 14012KT 22/20 A3001 RMK A01 T02170199  RH  089%=      5-min Rain = 0
KTAS 251717Z 15014KT 22/20 A3001 RMK A01 T02170198  RH  089%=      5-min Rain = 0
KTAS 251718Z 15013KT 22/20 A3001 RMK A01 T02170198  RH  089%=      5-min Rain = 0
KTAS 251719Z 14016KT 22/20 A3001 RMK A01 T02180198  RH  089%=      5-min Rain = 0
KTAS 251720Z 14015KT 22/20 A3001 RMK A01 T02180198  RH  089%=      5-min Rain = 0
KTAS 251721Z 15015KT 22/20 A3001 RMK A01 T02180198  RH  088%=      5-min Rain = 0
KTAS 251722Z 14015KT 22/20 A3001 RMK A01 T02180198  RH  088%=      5-min Rain = 0
KTAS 251723Z 14013G18KT 22/20 A3001 RMK A01 T02190198  RH  088%=      5-min Rain = 0
KTAS 251724Z 15013KT 22/20 A3001 RMK A01 T02190199  RH  088%=      5-min Rain = 0
KTAS 251725Z 14013KT 22/20 A3001 RMK A01 T02200200  RH  089%=      5-min Rain = 0
KTAS 251726Z 14015KT 22/20 A3001 RMK A01 T02200199  RH  088%=      5-min Rain = 0
KTAS 251727Z 14014G19KT 22/20 A3001 RMK A01 T02200198  RH  087%=      5-min Rain = 0
KTAS 251728Z 14015KT 22/20 A3001 RMK A01 T02200199  RH  087%=      5-min Rain = 0
KTAS 251729Z 15012KT 22/20 A3001 RMK A01 T02200198  RH  087%=      5-min Rain = 0
KTAS 251730Z 14013KT 22/20 A3001 RMK A01 T02200199  RH  088%=      5-min Rain = 0
KTAS 251731Z 14016KT 22/20 A3001 RMK A01 T02200198  RH  087%=      5-min Rain = 0
KTAS 251732Z 15016KT 22/20 A3001 RMK A01 T02190197  RH  088%=      5-min Rain = 0
KTAS 251733Z 14015KT 22/20 A3001 RMK A01 T02180197  RH  088%=      5-min Rain = 0
KTAS 251734Z 15016KT 22/20 A3001 RMK A01 T02180197  RH  088%=      5-min Rain = 0
KTAS 251735Z 14015KT 22/20 A3001 RMK A01 T02190197  RH  088%=      5-min Rain = 0
KTAS 251736Z 14016KT 22/20 A3001 RMK A01 T02190197  RH  088%=      5-min Rain = 0
KTAS 251737Z 15015KT 22/20 A3001 RMK A01 T02190197  RH  088%=      5-min Rain = 0
KTAS 251738Z 14014KT 22/20 A3001 RMK A01 T02190198  RH  088%=      5-min Rain = 0
KTAS 251739Z 15014KT 22/20 A3001 RMK A01 T02190198  RH  088%=      5-min Rain = 0
KTAS 251740Z 14013KT 22/20 A3001 RMK A01 T02190198  RH  088%=      5-min Rain = 0
KTAS 251741Z 15013KT 22/20 A3001 RMK A01 T02180197  RH  088%=      5-min Rain = 0
KTAS 251742Z 14014KT 22/20 A3001 RMK A01 T02180198  RH  088%=      5-min Rain = 0
KTAS 251743Z 15012KT 22/20 A3001 RMK A01 T02170198  RH  089%=      5-min Rain = 0
KTAS 251744Z 14013KT 22/20 A3001 RMK A01 T02160198  RH  089%=      5-min Rain = 0
KTAS 251745Z 14015KT 22/20 A3001 RMK A01 T02160197  RH  089%=      5-min Rain = 0
KTAS 251746Z 14012KT 22/20 A3001 RMK A01 T02160198  RH  090%=      5-min Rain = 0
KTAS 251747Z 15014KT 22/20 A3001 RMK A01 T02150198  RH  090%=      5-min Rain = 0
KTAS 251748Z 15013KT 22/20 A3001 RMK A01 T02150198  RH  090%=      5-min Rain = 0
KTAS 251749Z 15013KT 22/20 A3001 RMK A01 T02150198  RH  090%=      5-min Rain = 0
KTAS 251750Z 14013KT 21/20 A3001 RMK A01 T02140198  RH  090%=      5-min Rain = 0
KTAS 251751Z 15012KT 21/20 A30 RMK A01 T02140198  RH  090%=      5-min Rain = 0
KTAS 251752Z 14014KT 21/20 A30 RMK A01 T02140198  RH  090%=      5-min Rain = 0
KTAS 251753Z 15011KT 21/20 A30 RMK A01 T02140198  RH  090%=      5-min Rain = 0
KTAS 251754Z 15014KT 21/20 A30 RMK A01 T02140198  RH  091%=      5-min Rain = 0
KTAS 251755Z 15012KT 21/20 A30 RMK A01 T02140198  RH  091%=      5-min Rain = 0
KTAS 251756Z 15010KT 21/20 A30 RMK A01 T02140199  RH  091%=      5-min Rain = 0
KTAS 251757Z 14013KT 22/20 A30 RMK A01 T02150200  RH  091%=      5-min Rain = 0
KTAS 251758Z 15013KT 22/20 A30 RMK A01 T02150199  RH  090%=      5-min Rain = 0
KTAS 251759Z 15011KT 22/20 A30 RMK A01 T02160200  RH  090%=      5-min Rain = 0
KTAS 251800Z 14012KT 22/20 A30 RMK A01 T02160200  RH  090%=      5-min Rain = 0
KTAS 251801Z 15014KT 22/20 A30 RMK A01 T02170199  RH  090%=      5-min Rain = 0
KTAS 251802Z 15014KT 22/20 A30 RMK A01 T02170199  RH  089%=      5-min Rain = 0
KTAS 251803Z 15013KT 22/20 A30 RMK A01 T02180199  RH  089%=      5-min Rain = 0
KTAS 251804Z 14013KT 22/20 A30 RMK A01 T02180199  RH  089%=      5-min Rain = 0
KTAS 251805Z 15011KT 22/20 A30 RMK A01 T02190200  RH  089%=      5-min Rain = 0
KTAS 251806Z 15012KT 22/20 A30 RMK A01 T02200201  RH  089%=      5-min Rain = 0
KTAS 251807Z 14011KT 22/20 A30 RMK A01 T02200201  RH  089%=      5-min Rain = 0
KTAS 251808Z 14012KT 22/20 A30 RMK A01 T02210201  RH  088%=      5-min Rain = 0
KTAS 251809Z 14013KT 22/20 A30 RMK A01 T02210200  RH  088%=      5-min Rain = 0
KTAS 251810Z 14013KT 22/20 A30 RMK A01 T02210199  RH  087%=      5-min Rain = 0
KTAS 251811Z 14013KT 22/20 A30 RMK A01 T02210199  RH  087%=      5-min Rain = 0
KTAS 251812Z 14013KT 22/20 A30 RMK A01 T02210199  RH  087%=      5-min Rain = 0
KTAS 251813Z 14013KT 22/20 A30 RMK A01 T02200199  RH  088%=      5-min Rain = 0
KTAS 251814Z 14011KT 22/20 A30 RMK A01 T02210200  RH  088%=      5-min Rain = 0
KTAS 251815Z 14012KT 22/20 A30 RMK A01 T02210200  RH  088%=      5-min Rain = 0
KTAS 251816Z 14013KT 22/20 A30 RMK A01 T02210199  RH  088%=      5-min Rain = 0
KTAS 251817Z 14013KT 22/20 A30 RMK A01 T02200199  RH  088%=      5-min Rain = 0
KTAS 251818Z 14013KT 22/20 A2999 RMK A01 T02200199  RH  088%=      5-min Rain = 0
KTAS 251819Z 14012KT 22/20 A2999 RMK A01 T02200199  RH  088%=      5-min Rain = 0
KTAS 251820Z 14011KT 22/20 A2999 RMK A01 T02210200  RH  088%=      5-min Rain = 0
KTAS 251821Z 14012KT 22/20 A2999 RMK A01 T02230202  RH  088%=      5-min Rain = 0
KTAS 251822Z 15013KT 22/20 A2999 RMK A01 T02240201  RH  087%=      5-min Rain = 0
KTAS 251823Z 14014KT 23/20 A2999 RMK A01 T02250201  RH  086%=      5-min Rain = 0
KTAS 251824Z 14013KT 23/20 A2999 RMK A01 T02260202  RH  086%=      5-min Rain = 0
KTAS 251825Z 14013KT 23/20 A2999 RMK A01 T02280203  RH  086%=      5-min Rain = 0
KTAS 251826Z 14014KT 23/20 A2999 RMK A01 T02310204  RH  085%=      5-min Rain = 0
KTAS 251827Z 15013KT 23/20 A2999 RMK A01 T02330204  RH  084%=      5-min Rain = 0
KTAS 251828Z 14013KT 24/20 A2999 RMK A01 T02350204  RH  083%=      5-min Rain = 0
KTAS 251829Z 14011KT 24/21 A2999 RMK A01 T02360205  RH  083%=      5-min Rain = 0
KTAS 251830Z 13013KT 24/21 A2999 RMK A01 T02400209  RH  083%=      5-min Rain = 0
KTAS 251831Z 13016KT 24/21 A2999 RMK A01 T02420208  RH  081%=      5-min Rain = 0
KTAS 251832Z 14016KT 24/21 A2999 RMK A01 T02410205  RH  080%=      5-min Rain = 0
KTAS 251833Z 14015KT 24/21 A2999 RMK A01 T02410206  RH  081%=      5-min Rain = 0
KTAS 251834Z 14015KT 24/21 A2998 RMK A01 T02410205  RH  080%=      5-min Rain = 0
KTAS 251835Z 14016KT 24/21 A2998 RMK A01 T02410205  RH  080%=      5-min Rain = 0
KTAS 251836Z 14016G21KT 24/21 A2998 RMK A01 T02420206  RH  080%=      5-min Rain = 0
KTAS 251837Z 15018KT 24/21 A2998 RMK A01 T02430205  RH  079%=      5-min Rain = 0
KTAS 251838Z 15016KT 24/20 A2998 RMK A01 T02420204  RH  079%=      5-min Rain = 0
KTAS 251839Z 15016KT 24/20 A2998 RMK A01 T02420204  RH  080%=      5-min Rain = 0
KTAS 251840Z 15013KT 24/20 A2998 RMK A01 T02410204  RH  080%=      5-min Rain = 0
KTAS 251841Z 16015KT 24/20 A2998 RMK A01 T02410204  RH  080%=      5-min Rain = 0
KTAS 251842Z 15016KT 24/20 A2998 RMK A01 T02400203  RH  080%=      5-min Rain = 0
KTAS 251843Z 14013KT 24/20 A2998 RMK A01 T02410204  RH  080%=      5-min Rain = 0
KTAS 251844Z 14017KT 24/20 A2998 RMK A01 T02420204  RH  079%=      5-min Rain = 0
KTAS 251845Z 15016KT 24/20 A2998 RMK A01 T02420204  RH  079%=      5-min Rain = 0
KTAS 251846Z 15015G20KT 24/21 A2997 RMK A01 T02430205  RH  079%=      5-min Rain = 0
KTAS 251847Z 15017KT 25/21 A2997 RMK A01 T02450206  RH  078%=      5-min Rain = 0
KTAS 251848Z 16018KT 25/20 A2997 RMK A01 T02450203  RH  077%=      5-min Rain = 0
KTAS 251849Z 15018KT 25/20 A2997 RMK A01 T02460204  RH  078%=      5-min Rain = 0
KTAS 251850Z 15017KT 25/21 A2997 RMK A01 T02480206  RH  077%=      5-min Rain = 0
KTAS 251851Z 15015KT 25/21 A2997 RMK A01 T02510207  RH  077%=      5-min Rain = 0
KTAS 251852Z 15019KT 25/21 A2997 RMK A01 T02510205  RH  075%=      5-min Rain = 0
KTAS 251853Z 16015G20KT 25/20 A2997 RMK A01 T02500203  RH  075%=      5-min Rain = 0
KTAS 251854Z 16014G19KT 25/21 A2997 RMK A01 T02520208  RH  076%=      5-min Rain = 0
KTAS 251855Z 16016KT 25/21 A2997 RMK A01 T02540206  RH  075%=      5-min Rain = 0
KTAS 251856Z 15017KT 25/20 A2997 RMK A01 T02540204  RH  074%=      5-min Rain = 0
KTAS 251857Z 15019G24KT 25/20 A2997 RMK A01 T02540204  RH  074%=      5-min Rain = 0
KTAS 251858Z 15019KT 25/20 A2997 RMK A01 T02520202  RH  074%=      5-min Rain = 0
KTAS 251859Z 15019G25KT 25/20 A2997 RMK A01 T02510202  RH  074%=      5-min Rain = 0
KTAS 251900Z 15020KT 25/20 A2997 RMK A01 T02500202  RH  075%=      5-min Rain = 0
KTAS 251901Z 15022KT 25/20 A2997 RMK A01 T02500201  RH  074%=      5-min Rain = 0
KTAS 251902Z 15020KT 25/20 A2997 RMK A01 T02500203  RH  075%=      5-min Rain = 0
KTAS 251903Z 14019KT 25/20 A2997 RMK A01 T02500202  RH  075%=      5-min Rain = 0
KTAS 251904Z 16020KT 25/20 A2997 RMK A01 T02500203  RH  075%=      5-min Rain = 0
KTAS 251905Z 16019KT 25/20 A2997 RMK A01 T02500204  RH  075%=      5-min Rain = 0
KTAS 251906Z 15017KT 25/21 A2997 RMK A01 T02520205  RH  075%=      5-min Rain = 0
KTAS 251907Z 15020KT 26/21 A2997 RMK A01 T02550205  RH  074%=      5-min Rain = 0
KTAS 251908Z 15022KT 26/20 A2997 RMK A01 T02550204  RH  073%=      5-min Rain = 0
KTAS 251909Z 15020KT 26/21 A2997 RMK A01 T02560205  RH  073%=      5-min Rain = 0
KTAS 251910Z 15021G27KT 26/20 A2997 RMK A01 T02570204  RH  073%=      5-min Rain = 0
KTAS 251911Z 15021G26KT 26/21 A2996 RMK A01 T02580205  RH  073%=      5-min Rain = 0
KTAS 251912Z 15022KT 26/21 A2996 RMK A01 T02590205  RH  072%=      5-min Rain = 0
KTAS 251913Z 16023KT 26/21 A2996 RMK A01 T02600205  RH  072%=      5-min Rain = 0
KTAS 251914Z 16022G28KT 26/21 A2996 RMK A01 T02600206  RH  072%=      5-min Rain = 0
KTAS 251915Z 15023KT 26/21 A2996 RMK A01 T02600206  RH  072%=      5-min Rain = 0
KTAS 251916Z 16020G25KT 26/21 A2996 RMK A01 T02620208  RH  072%=      5-min Rain = 0
KTAS 251917Z 15020G27KT 27/21 A2996 RMK A01 T02650208  RH  071%=      5-min Rain = 0
KTAS 251918Z 15021KT 26/21 A2996 RMK A01 T02640206  RH  071%=      5-min Rain = 0
KTAS 251919Z 16022KT 26/20 A2996 RMK A01 T02620204  RH  071%=      5-min Rain = 0
KTAS 251920Z 15018G24KT 26/21 A2996 RMK A01 T02600205  RH  072%=      5-min Rain = 0
KTAS 251921Z 16022KT 26/20 A2996 RMK A01 T02590204  RH  071%=      5-min Rain = 0
KTAS 251922Z 15018G24KT 26/21 A2995 RMK A01 T02570205  RH  073%=      5-min Rain = 0
KTAS 251923Z 16023KT 26/20 A2995 RMK A01 T02570204  RH  073%=      5-min Rain = 0
KTAS 251924Z 13017G23KT 26/21 A2995 RMK A01 T02560207  RH  074%=      5-min Rain = 0
KTAS 251925Z 15021KT 26/21 A2995 RMK A01 T02560206  RH  074%=      5-min Rain = 0
KTAS 251926Z 14018KT 26/21 A2995 RMK A01 T02560206  RH  074%=      5-min Rain = 0
KTAS 251927Z 15013KT 26/21 A2995 RMK A01 T02550208  RH  075%=      5-min Rain = 0
KTAS 251928Z 15015G20KT 26/21 A2995 RMK A01 T02560211  RH  076%=      5-min Rain = 0
KTAS 251929Z 15016KT 26/21 A2995 RMK A01 T02580209  RH  075%=      5-min Rain = 0
KTAS 251930Z 16014KT 26/21 A2995 RMK A01 T02590210  RH  074%=      5-min Rain = 0
KTAS 251931Z 15016KT 26/21 A2995 RMK A01 T02600209  RH  074%=      5-min Rain = 0
KTAS 251932Z 15015KT 26/21 A2995 RMK A01 T02620210  RH  073%=      5-min Rain = 0
KTAS 251933Z 15019KT 26/21 A2995 RMK A01 T02610206  RH  072%=      5-min Rain = 0
KTAS 251934Z 15020G25KT 26/21 A2995 RMK A01 T02590205  RH  072%=      5-min Rain = 0
KTAS 251935Z 14020G25KT 26/20 A2995 RMK A01 T02580204  RH  072%=      5-min Rain = 0
KTAS 251936Z 15018KT 26/21 A2995 RMK A01 T02600205  RH  072%=      5-min Rain = 0
KTAS 251937Z 15019G24KT 26/20 A2995 RMK A01 T02610203  RH  070%=      5-min Rain = 0
KTAS 251938Z 16021G26KT 26/20 A2995 RMK A01 T02610204  RH  070%=      5-min Rain = 0
KTAS 251939Z 16020KT 26/20 A2995 RMK A01 T02610203  RH  070%=      5-min Rain = 0
KTAS 251940Z 16020KT 26/20 A2995 RMK A01 T02610203  RH  070%=      5-min Rain = 0
KTAS 251941Z 16020KT 26/20 A2995 RMK A01 T02600202  RH  070%=      5-min Rain = 0
KTAS 251942Z 15019KT 26/20 A2995 RMK A01 T02580203  RH  072%=      5-min Rain = 0
KTAS 251943Z 14017KT 26/20 A2995 RMK A01 T02570202  RH  072%=      5-min Rain = 0
KTAS 251944Z 15016KT 26/20 A2995 RMK A01 T02560204  RH  073%=      5-min Rain = 0
KTAS 251945Z 16017KT 26/20 A2995 RMK A01 T02560204  RH  073%=      5-min Rain = 0
KTAS 251946Z 14014KT 26/20 A2995 RMK A01 T02550204  RH  073%=      5-min Rain = 0
KTAS 251947Z 15014G19KT 26/21 A2995 RMK A01 T02550205  RH  074%=      5-min Rain = 0
KTAS 251948Z 16016KT 26/21 A2995 RMK A01 T02550205  RH  074%=      5-min Rain = 0
KTAS 251949Z 16016G22KT 26/20 A2995 RMK A01 T02550203  RH  073%=      5-min Rain = 0
KTAS 251950Z 16020G25KT 26/20 A2995 RMK A01 T02550201  RH  072%=      5-min Rain = 0
KTAS 251951Z 15016KT 26/20 A2995 RMK A01 T02560202  RH  072%=      5-min Rain = 0
KTAS 251952Z 15017KT 26/20 A2995 RMK A01 T02560202  RH  072%=      5-min Rain = 0
KTAS 251953Z 15018KT 26/20 A2994 RMK A01 T02560201  RH  071%=      5-min Rain = 0
KTAS 251954Z 15017G22KT 26/20 A2994 RMK A01 T02560200  RH  072%=      5-min Rain = 0
KTAS 251955Z 15019KT 26/20 A2994 RMK A01 T02570202  RH  072%=      5-min Rain = 0
KTAS 251956Z 15018KT 26/20 A2994 RMK A01 T02570202  RH  072%=      5-min Rain = 0
KTAS 251957Z 16020G25KT 26/20 A2994 RMK A01 T02560200  RH  071%=      5-min Rain = 0
KTAS 251958Z 16018G25KT 26/20 A2994 RMK A01 T02570202  RH  071%=      5-min Rain = 0
KTAS 251959Z 16017G22KT 26/20 A2994 RMK A01 T02600202  RH  071%=      5-min Rain = 0
KTAS 252000Z 16022KT 26/20 A2994 RMK A01 T02620201  RH  069%=      5-min Rain = 0
KTAS 252001Z 16018KT 26/20 A2994 RMK A01 T02600200  RH  069%=      5-min Rain = 0
KTAS 252002Z 16020KT 26/20 A2994 RMK A01 T02600201  RH  070%=      5-min Rain = 0
KTAS 252003Z 16021G26KT 26/20 A2994 RMK A01 T02590200  RH  070%=      5-min Rain = 0
KTAS 252004Z 16020KT 26/20 A2994 RMK A01 T02580200  RH  070%=      5-min Rain = 0
KTAS 252005Z 16021G26KT 26/20 A2994 RMK A01 T02580200  RH  070%=      5-min Rain = 0
KTAS 252006Z 16022G27KT 26/20 A2994 RMK A01 T02570198  RH  070%=      5-min Rain = 0
KTAS 252007Z 16019KT 26/20 A2994 RMK A01 T02570200  RH  071%=      5-min Rain = 0
KTAS 252008Z 16021KT 26/20 A2994 RMK A01 T02570200  RH  070%=      5-min Rain = 0
KTAS 252009Z 16019KT 26/20 A2994 RMK A01 T02580199  RH  070%=      5-min Rain = 0
KTAS 252010Z 17021KT 26/20 A2994 RMK A01 T02580200  RH  070%=      5-min Rain = 0
KTAS 252011Z 16020G26KT 26/20 A2994 RMK A01 T02580200  RH  070%=      5-min Rain = 0
KTAS 252012Z 15019KT 26/20 A2994 RMK A01 T02580201  RH  071%=      5-min Rain = 0
KTAS 252013Z 15018KT 26/20 A2994 RMK A01 T02580201  RH  071%=      5-min Rain = 0
KTAS 252014Z 16018G23KT 26/20 A2994 RMK A01 T02580201  RH  071%=      5-min Rain = 0
KTAS 252015Z 15018KT 26/20 A2994 RMK A01 T02580202  RH  071%=      5-min Rain = 0
KTAS 252016Z 16018KT 26/20 A2994 RMK A01 T02580201  RH  071%=      5-min Rain = 0
KTAS 252017Z 16016KT 26/20 A2994 RMK A01 T02580202  RH  071%=      5-min Rain = 0
KTAS 252018Z 17019KT 26/20 A2994 RMK A01 T02590201  RH  071%=      5-min Rain = 0
KTAS 252019Z 17019KT 26/20 A2994 RMK A01 T02600200  RH  069%=      5-min Rain = 0
KTAS 252020Z 16019KT 26/20 A2994 RMK A01 T02600200  RH  069%=      5-min Rain = 0
KTAS 252021Z 16019KT 26/20 A2994 RMK A01 T02600199  RH  069%=      5-min Rain = 0
KTAS 252022Z 15016G21KT 26/20 A2994 RMK A01 T02610201  RH  069%=      5-min Rain = 0
KTAS 252023Z 17019KT 26/20 A2994 RMK A01 T02630202  RH  069%=      5-min Rain = 0
KTAS 252024Z 17023G28KT 27/20 A2994 RMK A01 T02650200  RH  067%=      5-min Rain = 0
KTAS 252025Z 17022G27KT 27/20 A2994 RMK A01 T02680201  RH  067%=      5-min Rain = 0
KTAS 252026Z 17024G29KT 27/20 A2994 RMK A01 T02700199  RH  065%=      5-min Rain = 0
KTAS 252027Z 17021KT 27/20 A2994 RMK A01 T02690199  RH  066%=      5-min Rain = 0
KTAS 252028Z 17024KT 27/20 A2994 RMK A01 T02680198  RH  065%=      5-min Rain = 0
KTAS 252029Z 17025G30KT 27/20 A2994 RMK A01 T02670198  RH  066%=      5-min Rain = 0
KTAS 252030Z 17023KT 27/20 A2994 RMK A01 T02660197  RH  066%=      5-min Rain = 0
KTAS 252031Z 17022G27KT 27/20 A2994 RMK A01 T02660198  RH  066%=      5-min Rain = 0
KTAS 252032Z 17020KT 27/20 A2994 RMK A01 T02680201  RH  067%=      5-min Rain = 0
KTAS 252033Z 17017KT 27/21 A2994 RMK A01 T02720205  RH  067%=      5-min Rain = 0
KTAS 252034Z 17021KT 28/21 A2994 RMK A01 T02750205  RH  066%=      5-min Rain = 0
KTAS 252035Z 17020KT 27/20 A2994 RMK A01 T02730201  RH  065%=      5-min Rain = 0
KTAS 252036Z 16017KT 27/20 A2994 RMK A01 T02710201  RH  066%=      5-min Rain = 0
KTAS 252037Z 17020KT 27/20 A2994 RMK A01 T02700201  RH  066%=      5-min Rain = 0
KTAS 252038Z 17022KT 27/20 A2994 RMK A01 T02670198  RH  066%=      5-min Rain = 0
KTAS 252039Z 16019KT 27/20 A2993 RMK A01 T02650197  RH  066%=      5-min Rain = 0
KTAS 252040Z 16019G24KT 27/20 A2994 RMK A01 T02650199  RH  067%=      5-min Rain = 0
KTAS 252041Z 16018G23KT 27/20 A2993 RMK A01 T02660200  RH  067%=      5-min Rain = 0
KTAS 252042Z 16023KT 27/20 A2993 RMK A01 T02670198  RH  066%=      5-min Rain = 0
KTAS 252043Z 17023KT 27/20 A2993 RMK A01 T02670198  RH  066%=      5-min Rain = 0
KTAS 252044Z 17021G26KT 27/20 A2993 RMK A01 T02680199  RH  066%=      5-min Rain = 0
KTAS 252045Z 17023KT 27/20 A2993 RMK A01 T02700201  RH  066%=      5-min Rain = 0
KTAS 252046Z 17021G26KT 27/20 A2993 RMK A01 T02700198  RH  065%=      5-min Rain = 0
KTAS 252047Z 16019KT 27/20 A2993 RMK A01 T02710200  RH  065%=      5-min Rain = 0
KTAS 252048Z 17019KT 27/20 A2993 RMK A01 T02740204  RH  066%=      5-min Rain = 0
KTAS 252049Z 16017KT 28/20 A2993 RMK A01 T02760204  RH  065%=      5-min Rain = 0
KTAS 252050Z 16018KT 28/20 A2993 RMK A01 T02780204  RH  064%=      5-min Rain = 0
KTAS 252051Z 16018KT 28/20 A2993 RMK A01 T02790203  RH  063%=      5-min Rain = 0
KTAS 252052Z 16018G23KT 28/20 A2993 RMK A01 T02780203  RH  064%=      5-min Rain = 0
KTAS 252053Z 16021KT 28/20 A2993 RMK A01 T02760199  RH  063%=      5-min Rain = 0
KTAS 252054Z 15019G27KT 27/20 A2993 RMK A01 T02730200  RH  064%=      5-min Rain = 0
KTAS 252055Z 16018G23KT 27/20 A2993 RMK A01 T02720199  RH  064%=      5-min Rain = 0
KTAS 252056Z 16019G25KT 27/20 A2993 RMK A01 T02700199  RH  065%=      5-min Rain = 0
KTAS 252057Z 16017KT 27/20 A2993 RMK A01 T02680199  RH  066%=      5-min Rain = 0
KTAS 252058Z 16022KT 27/20 A2993 RMK A01 T02690199  RH  065%=      5-min Rain = 0
KTAS 252059Z 16022G28KT 27/20 A2993 RMK A01 T02690197  RH  065%=      5-min Rain = 0
KTAS 252100Z 16021KT 27/20 A2994 RMK A01 T02690196  RH  064%=      5-min Rain = 0
KTAS 252101Z 17021G28KT 27/20 A2994 RMK A01 T02700197  RH  064%=      5-min Rain = 0
KTAS 252102Z 17020KT 27/20 A2994 RMK A01 T02690197  RH  064%=      5-min Rain = 0
KTAS 252103Z 16019G24KT 27/20 A2994 RMK A01 T02690196  RH  064%=      5-min Rain = 0
KTAS 252104Z 17021KT 27/20 A2994 RMK A01 T02710197  RH  064%=      5-min Rain = 0
KTAS 252105Z 17023KT 27/20 A2994 RMK A01 T02730198  RH  064%=      5-min Rain = 0
KTAS 252106Z 16021KT 27/20 A2994 RMK A01 T02720196  RH  063%=      5-min Rain = 0
KTAS 252107Z 17023G28KT 27/20 A2994 RMK A01 T02710197  RH  064%=      5-min Rain = 0
KTAS 252108Z 17021G28KT 27/20 A2994 RMK A01 T02700196  RH  064%=      5-min Rain = 0
KTAS 252109Z 16021G27KT 27/20 A2994 RMK A01 T02690196  RH  064%=      5-min Rain = 0
KTAS 252110Z 17022KT 27/19 A2994 RMK A01 T02690193  RH  063%=      5-min Rain = 0
KTAS 252111Z 16023KT 27/20 A2994 RMK A01 T02690195  RH  064%=      5-min Rain = 0
KTAS 252112Z 17024G29KT 27/20 A2994 RMK A01 T02710195  RH  063%=      5-min Rain = 0
KTAS 252113Z 16022G27KT 27/20 A2994 RMK A01 T02710195  RH  063%=      5-min Rain = 0
KTAS 252114Z 17026KT 27/19 A2993 RMK A01 T02690194  RH  063%=      5-min Rain = 0
KTAS 252115Z 16023KT 27/20 A2993 RMK A01 T02710196  RH  064%=      5-min Rain = 0
KTAS 252116Z 16023KT 28/20 A2993 RMK A01 T02750197  RH  062%=      5-min Rain = 0
KTAS 252117Z 17023G28KT 28/20 A2993 RMK A01 T02770199  RH  062%=      5-min Rain = 0
KTAS 252118Z 17023KT 28/20 A2993 RMK A01 T02780199  RH  062%=      5-min Rain = 0
KTAS 252119Z 17021KT 28/20 A2993 RMK A01 T02780199  RH  062%=      5-min Rain = 0
KTAS 252120Z 17024KT 28/20 A2993 RMK A01 T02780198  RH  062%=      5-min Rain = 0
KTAS 252121Z 17022KT 28/20 A2993 RMK A01 T02760196  RH  062%=      5-min Rain = 0
KTAS 252122Z 17021G26KT 27/20 A2993 RMK A01 T02740196  RH  062%=      5-min Rain = 0
KTAS 252123Z 18020KT 27/19 A2992 RMK A01 T02700193  RH  063%=      5-min Rain = 0
KTAS 252124Z 17019G25KT 27/20 A2992 RMK A01 T02680195  RH  064%=      5-min Rain = 0
KTAS 252125Z 17018G23KT 27/20 A2993 RMK A01 T02680196  RH  065%=      5-min Rain = 0
KTAS 252126Z 16022G27KT 27/20 A2993 RMK A01 T02690195  RH  064%=      5-min Rain = 0
KTAS 252127Z 16022G27KT 27/19 A2993 RMK A01 T02680193  RH  063%=      5-min Rain = 0
KTAS 252128Z 16023G28KT 27/19 A2993 RMK A01 T02670191  RH  063%=      5-min Rain = 0
KTAS 252129Z 16024G29KT 27/19 A2992 RMK A01 T02660190  RH  063%=      5-min Rain = 0
KTAS 252130Z 16023KT 27/19 A2992 RMK A01 T02660191  RH  063%=      5-min Rain = 0
KTAS 252131Z 16021KT 27/19 A2992 RMK A01 T02660191  RH  063%=      5-min Rain = 0
KTAS 252132Z 16020G25KT 27/19 A2992 RMK A01 T02660193  RH  064%=      5-min Rain = 0
KTAS 252133Z 16022KT 27/19 A2992 RMK A01 T02660191  RH  063%=      5-min Rain = 0
KTAS 252134Z 16020KT 27/19 A2992 RMK A01 T02660191  RH  063%=      5-min Rain = 0
KTAS 252135Z 17021KT 27/19 A2991 RMK A01 T02650190  RH  063%=      5-min Rain = 0
KTAS 252136Z 16019KT 26/19 A2991 RMK A01 T02640189  RH  063%=      5-min Rain = 0
KTAS 252137Z 16019KT 26/19 A2991 RMK A01 T02630191  RH  064%=      5-min Rain = 0
KTAS 252138Z 16019G25KT 26/19 A2991 RMK A01 T02630191  RH  064%=      5-min Rain = 0
KTAS 252139Z 17020KT 26/19 A2991 RMK A01 T02620191  RH  065%=      5-min Rain = 0
KTAS 252140Z 17020KT 26/19 A2992 RMK A01 T02620191  RH  065%=      5-min Rain = 0
KTAS 252141Z 17020KT 26/19 A2992 RMK A01 T02610191  RH  065%=      5-min Rain = 0
KTAS 252142Z 17023KT 26/19 A2992 RMK A01 T02600191  RH  065%=      5-min Rain = 0
KTAS 252143Z 17021G27KT 26/19 A2992 RMK A01 T02600191  RH  065%=      5-min Rain = 0
KTAS 252144Z 17021KT 26/19 A2992 RMK A01 T02600190  RH  065%=      5-min Rain = 0
KTAS 252145Z 17020KT 26/19 A2992 RMK A01 T02600191  RH  066%=      5-min Rain = 0
KTAS 252146Z 17020G26KT 26/19 A2992 RMK A01 T02600191  RH  066%=      5-min Rain = 0
KTAS 252147Z 16022KT 26/19 A2992 RMK A01 T02590190  RH  066%=      5-min Rain = 0
KTAS 252148Z 16022G27KT 26/19 A2992 RMK A01 T02590190  RH  066%=      5-min Rain = 0
KTAS 252149Z 17024G29KT 26/19 A2991 RMK A01 T02580190  RH  066%=      5-min Rain = 0
KTAS 252150Z 16020G29KT 26/19 A2991 RMK A01 T02580189  RH  066%=      5-min Rain = 0
KTAS 252151Z 16020G25KT 26/19 A2991 RMK A01 T02570190  RH  066%=      5-min Rain = 0
KTAS 252152Z 16022G28KT 26/19 A2991 RMK A01 T02570189  RH  066%=      5-min Rain = 0
KTAS 252153Z 16022KT 26/19 A2992 RMK A01 T02570190  RH  066%=      5-min Rain = 0
KTAS 252154Z 17024KT 26/19 A2992 RMK A01 T02560189  RH  067%=      5-min Rain = 0
KTAS 252155Z 16021KT 26/19 A2992 RMK A01 T02570189  RH  066%=      5-min Rain = 0
KTAS 252156Z 16020G26KT 26/19 A2991 RMK A01 T02560190  RH  067%=      5-min Rain = 0
KTAS 252157Z 16022KT 26/19 A2991 RMK A01 T02560190  RH  067%=      5-min Rain = 0
KTAS 252158Z 16021KT 26/19 A2991 RMK A01 T02560190  RH  067%=      5-min Rain = 0
KTAS 252159Z 15022G27KT 26/19 A299 RMK A01 T02560190  RH  067%=      5-min Rain = 0
KTAS 252200Z 15022G29KT 26/19 A299 RMK A01 T02560191  RH  067%=      5-min Rain = 0
KTAS 252201Z 15025KT 26/19 A299 RMK A01 T02560190  RH  067%=      5-min Rain = 0
KTAS 252202Z 15024KT 26/19 A299 RMK A01 T02560190  RH  067%=      5-min Rain = 0
KTAS 252203Z 15024G30KT 26/19 A299 RMK A01 T02560190  RH  067%=      5-min Rain = 0
KTAS 252204Z 15022KT 26/19 A299 RMK A01 T02550191  RH  068%=      5-min Rain = 0
KTAS 252205Z 15026KT 26/19 A299 RMK A01 T02550190  RH  067%=      5-min Rain = 0
KTAS 252206Z 15028KT 26/19 A299 RMK A01 T02550190  RH  067%=      5-min Rain = 0
KTAS 252207Z 15025KT 26/19 A299 RMK A01 T02550190  RH  067%=      5-min Rain = 0
KTAS 252208Z 15021G28KT 26/19 A299 RMK A01 T02550191  RH  068%=      5-min Rain = 0
KTAS 252209Z 16024KT 25/19 A299 RMK A01 T02540190  RH  068%=      5-min Rain = 0
KTAS 252210Z 15022KT 25/19 A299 RMK A01 T02540190  RH  067%=      5-min Rain = 0
KTAS 252211Z 16020KT 25/19 A299 RMK A01 T02540190  RH  068%=      5-min Rain = 0
KTAS 252212Z 16018KT 25/19 A299 RMK A01 T02540190  RH  068%=      5-min Rain = 0
KTAS 252213Z 16015KT 25/19 A299 RMK A01 T02530190  RH  068%=      5-min Rain = 0
KTAS 252214Z 16020G28KT 25/19 A2991 RMK A01 T02520190  RH  068%=      5-min Rain = 0
KTAS 252215Z 17019KT 25/19 A2991 RMK A01 T02530189  RH  068%=      5-min Rain = 0
KTAS 252216Z 17023G28KT 25/19 A2991 RMK A01 T02530189  RH  068%=      5-min Rain = 0
KTAS 252217Z 17020KT 25/19 A2991 RMK A01 T02530189  RH  068%=      5-min Rain = 0
KTAS 252218Z 16021G26KT 25/19 A2991 RMK A01 T02530190  RH  068%=      5-min Rain = 0
KTAS 252219Z 16017G23KT 25/19 A2991 RMK A01 T02530190  RH  068%=      5-min Rain = 0
KTAS 252220Z 16021G27KT 25/19 A2991 RMK A01 T02530191  RH  069%=      5-min Rain = 0
KTAS 252221Z 16019G24KT 25/19 A2991 RMK A01 T02530191  RH  069%=      5-min Rain = 0
KTAS 252222Z 16020G26KT 25/19 A2991 RMK A01 T02530192  RH  069%=      5-min Rain = 0
KTAS 252223Z 16022KT 25/19 A2991 RMK A01 T02530191  RH  068%=      5-min Rain = 0
KTAS 252224Z 16023KT 25/19 A2991 RMK A01 T02540191  RH  068%=      5-min Rain = 0
KTAS 252225Z 16024KT 25/19 A2991 RMK A01 T02540191  RH  068%=      5-min Rain = 0
KTAS 252226Z 17023G28KT 26/19 A2991 RMK A01 T02550192  RH  068%=      5-min Rain = 0
KTAS 252227Z 17024KT 26/19 A2991 RMK A01 T02550192  RH  068%=      5-min Rain = 0
KTAS 252228Z 17024G31KT 26/19 A2991 RMK A01 T02560192  RH  068%=      5-min Rain = 0
KTAS 252229Z 16021KT 26/19 A2991 RMK A01 T02560192  RH  068%=      5-min Rain = 0
KTAS 252230Z 17021G26KT 26/19 A2991 RMK A01 T02570192  RH  067%=      5-min Rain = 0
KTAS 252231Z 16023G28KT 26/19 A2991 RMK A01 T02580193  RH  067%=      5-min Rain = 0
KTAS 252232Z 17024G29KT 26/19 A2991 RMK A01 T02600192  RH  066%=      5-min Rain = 0
KTAS 252233Z 16023KT 26/19 A2991 RMK A01 T02610193  RH  066%=      5-min Rain = 0
KTAS 252234Z 16022G28KT 26/19 A299 RMK A01 T02630194  RH  066%=      5-min Rain = 0
KTAS 252235Z 16025KT 26/19 A299 RMK A01 T02640192  RH  065%=      5-min Rain = 0
KTAS 252236Z 16024KT 27/19 A299 RMK A01 T02650193  RH  064%=      5-min Rain = 0
KTAS 252237Z 17022KT 27/19 A299 RMK A01 T02660193  RH  064%=      5-min Rain = 0
KTAS 252238Z 17019G25KT 27/19 A299 RMK A01 T02670194  RH  064%=      5-min Rain = 0
KTAS 252239Z 17021G26KT 27/20 A299 RMK A01 T02690195  RH  064%=      5-min Rain = 0
KTAS 252240Z 16018KT 27/20 A299 RMK A01 T02700195  RH  064%=      5-min Rain = 0
KTAS 252241Z 16020G26KT 27/20 A299 RMK A01 T02710196  RH  064%=      5-min Rain = 0
KTAS 252242Z 16018G23KT 27/20 A299 RMK A01 T02720196  RH  063%=      5-min Rain = 0
KTAS 252243Z 17020KT 27/20 A299 RMK A01 T02730197  RH  063%=      5-min Rain = 0
KTAS 252244Z 16021G26KT 27/20 A299 RMK A01 T02720195  RH  063%=      5-min Rain = 0
KTAS 252245Z 17021G27KT 27/19 A299 RMK A01 T02710194  RH  063%=      5-min Rain = 0
KTAS 252246Z 17023KT 27/19 A299 RMK A01 T02700194  RH  063%=      5-min Rain = 0
KTAS 252247Z 17023KT 27/19 A299 RMK A01 T02700194  RH  063%=      5-min Rain = 0
KTAS 252248Z 17024KT 27/19 A2989 RMK A01 T02690193  RH  063%=      5-min Rain = 0
KTAS 252249Z 17020KT 27/19 A2989 RMK A01 T02690193  RH  063%=      5-min Rain = 0
KTAS 252250Z 17020G25KT 27/19 A2989 RMK A01 T02700194  RH  063%=      5-min Rain = 0
KTAS 252251Z 18022G28KT 27/19 A2989 RMK A01 T02700194  RH  063%=      5-min Rain = 0
KTAS 252252Z 17022G28KT 27/19 A299 RMK A01 T02680193  RH  063%=      5-min Rain = 0
KTAS 252253Z 17015G21KT 27/19 A299 RMK A01 T02680194  RH  064%=      5-min Rain = 0
KTAS 252254Z 17018G25KT 27/20 A299 RMK A01 T02700197  RH  064%=      5-min Rain = 0
KTAS 252255Z 17023KT 27/19 A299 RMK A01 T02710194  RH  063%=      5-min Rain = 0
KTAS 252256Z 17021G27KT 27/19 A299 RMK A01 T02710192  RH  062%=      5-min Rain = 0
KTAS 252257Z 16021KT 27/19 A299 RMK A01 T02710193  RH  062%=      5-min Rain = 0
KTAS 252258Z 17021G28KT 27/19 A299 RMK A01 T02720194  RH  063%=      5-min Rain = 0
KTAS 252259Z 17023G29KT 27/19 A299 RMK A01 T02710192  RH  062%=      5-min Rain = 0
KTAS 252300Z 17027G32KT 27/19 A299 RMK A01 T02700191  RH  062%=      5-min Rain = 0
KTAS 252301Z 18026G31KT 27/19 A299 RMK A01 T02690190  RH  062%=      5-min Rain = 0
KTAS 252302Z 17024G29KT 27/19 A299 RMK A01 T02690190  RH  062%=      5-min Rain = 0
KTAS 252303Z 17024G29KT 27/19 A299 RMK A01 T02700191  RH  062%=      5-min Rain = 0
KTAS 252304Z 17024G30KT 27/19 A299 RMK A01 T02690191  RH  062%=      5-min Rain = 0
KTAS 252305Z 17023KT 27/19 A299 RMK A01 T02690193  RH  063%=      5-min Rain = 0
KTAS 252306Z 17024KT 27/19 A299 RMK A01 T02680193  RH  063%=      5-min Rain = 0
KTAS 252307Z 16024G29KT 27/19 A299 RMK A01 T02680192  RH  063%=      5-min Rain = 0
KTAS 252308Z 16023KT 27/19 A299 RMK A01 T02690193  RH  063%=      5-min Rain = 0
KTAS 252309Z 17024G29KT 27/19 A299 RMK A01 T02690193  RH  063%=      5-min Rain = 0
KTAS 252310Z 17024G29KT 27/19 A299 RMK A01 T02690192  RH  063%=      5-min Rain = 0
KTAS 252311Z 17026G33KT 27/19 A299 RMK A01 T02680192  RH  063%=      5-min Rain = 0
KTAS 252312Z 17028G33KT 27/19 A299 RMK A01 T02660191  RH  063%=      5-min Rain = 0
KTAS 252313Z 17022G28KT 27/19 A299 RMK A01 T02660191  RH  063%=      5-min Rain = 0
KTAS 252314Z 17023G30KT 27/19 A299 RMK A01 T02670190  RH  063%=      5-min Rain = 0
KTAS 252315Z 16022G27KT 27/19 A299 RMK A01 T02680189  RH  062%=      5-min Rain = 0
KTAS 252316Z 16021G27KT 27/19 A299 RMK A01 T02680189  RH  062%=      5-min Rain = 0
KTAS 252317Z 16024G31KT 27/19 A299 RMK A01 T02680190  RH  062%=      5-min Rain = 0
KTAS 252318Z 16024KT 27/19 A299 RMK A01 T02680189  RH  062%=      5-min Rain = 0
KTAS 252319Z 17024KT 27/19 A299 RMK A01 T02660188  RH  062%=      5-min Rain = 0
KTAS 252320Z 17021G27KT 26/19 A299 RMK A01 T02640188  RH  063%=      5-min Rain = 0
KTAS 252321Z 16021G27KT 26/19 A299 RMK A01 T02640190  RH  064%=      5-min Rain = 0
KTAS 252322Z 17024KT 27/19 A299 RMK A01 T02660190  RH  063%=      5-min Rain = 0
KTAS 252323Z 17023KT 27/19 A299 RMK A01 T02660190  RH  063%=      5-min Rain = 0
KTAS 252324Z 16023G28KT 27/19 A299 RMK A01 T02670189  RH  062%=      5-min Rain = 0
KTAS 252325Z 16026KT 27/19 A2991 RMK A01 T02680188  RH  062%=      5-min Rain = 0
KTAS 252326Z 17022G28KT 27/19 A2991 RMK A01 T02690188  RH  061%=      5-min Rain = 0
KTAS 252327Z 17021G28KT 27/19 A299 RMK A01 T02690190  RH  062%=      5-min Rain = 0
KTAS 252328Z 17019KT 27/19 A299 RMK A01 T02690190  RH  062%=      5-min Rain = 0
KTAS 252329Z 17022KT 27/19 A2991 RMK A01 T02680189  RH  062%=      5-min Rain = 0
KTAS 252330Z 17019G25KT 27/19 A2991 RMK A01 T02680189  RH  062%=      5-min Rain = 0
KTAS 252331Z 17019G26KT 27/19 A2991 RMK A01 T02680189  RH  062%=      5-min Rain = 0
KTAS 252332Z 17020G25KT 27/19 A2991 RMK A01 T02680189  RH  062%=      5-min Rain = 0
KTAS 252333Z 17021KT 27/19 A2991 RMK A01 T02670188  RH  062%=      5-min Rain = 0
KTAS 252334Z 16022KT 27/19 A2991 RMK A01 T02670186  RH  061%=      5-min Rain = 0
KTAS 252335Z 16020G25KT 27/19 A2991 RMK A01 T02670187  RH  061%=      5-min Rain = 0
KTAS 252336Z 16021KT 27/19 A2991 RMK A01 T02670188  RH  062%=      5-min Rain = 0
KTAS 252337Z 17021KT 27/19 A2991 RMK A01 T02680187  RH  061%=      5-min Rain = 0
KTAS 252338Z 16024KT 27/19 A2991 RMK A01 T02680187  RH  061%=      5-min Rain = 0
KTAS 252339Z 16021KT 27/19 A2992 RMK A01 T02680187  RH  061%=      5-min Rain = 0
KTAS 252340Z 17019KT 27/19 A2992 RMK A01 T02680188  RH  062%=      5-min Rain = 0
KTAS 252341Z 17022KT 27/19 A2992 RMK A01 T02660188  RH  062%=      5-min Rain = 0
KTAS 252342Z 17020KT 27/19 A2992 RMK A01 T02650187  RH  062%=      5-min Rain = 0
KTAS 252343Z 18019KT 27/19 A2992 RMK A01 T02650188  RH  063%=      5-min Rain = 0
KTAS 252344Z 18022KT 27/19 A2992 RMK A01 T02650189  RH  063%=      5-min Rain = 0
KTAS 252345Z 17023KT 27/19 A2992 RMK A01 T02650187  RH  062%=      5-min Rain = 0
KTAS 252346Z 18022KT 27/19 A2992 RMK A01 T02650187  RH  062%=      5-min Rain = 0
KTAS 252347Z 17020KT 27/19 A2992 RMK A01 T02650187  RH  062%=      5-min Rain = 0
KTAS 252348Z 17022KT 26/19 A2992 RMK A01 T02640187  RH  063%=      5-min Rain = 0
KTAS 252349Z 18018KT 27/19 A2993 RMK A01 T02650188  RH  063%=      5-min Rain = 0
KTAS 252350Z 18017KT 26/19 A2993 RMK A01 T02640188  RH  063%=      5-min Rain = 0
KTAS 252351Z 18015KT 27/19 A2993 RMK A01 T02650190  RH  063%=      5-min Rain = 0
KTAS 252352Z 17014KT 27/19 A2993 RMK A01 T02660192  RH  064%=      5-min Rain = 0
KTAS 252353Z 18021KT 27/19 A2993 RMK A01 T02670190  RH  063%=      5-min Rain = 0
KTAS 252354Z 18018KT 27/19 A2993 RMK A01 T02670188  RH  062%=      5-min Rain = 0
KTAS 252355Z 17021KT 27/19 A2993 RMK A01 T02660188  RH  062%=      5-min Rain = 0
KTAS 252356Z 18021KT 27/19 A2993 RMK A01 T02650187  RH  062%=      5-min Rain = 0
KTAS 252357Z 17022G27KT 27/19 A2993 RMK A01 T02650186  RH  062%=      5-min Rain = 0
KTAS 252358Z 17020G25KT 26/19 A2993 RMK A01 T02640186  RH  062%=      5-min Rain = 0
KTAS 252359Z 17021KT 26/19 A2993 RMK A01 T02630185  RH  062%=      5-min Rain = 0
KTAS 260000Z 17023KT 26/19 A2993 RMK A01 T02640185  RH  062%=      5-min Rain = 0
KTAS 260001Z 17019KT 26/19 A2993 RMK A01 T02630186  RH  062%=      5-min Rain = 0
KTAS 260002Z 17018G23KT 26/19 A2993 RMK A01 T02630186  RH  062%=      5-min Rain = 0
KTAS 260003Z 17020KT 26/19 A2993 RMK A01 T02630186  RH  063%=      5-min Rain = 0
KTAS 260004Z 17020KT 26/19 A2993 RMK A01 T02630186  RH  063%=      5-min Rain = 0
KTAS 260005Z 18017KT 26/19 A2993 RMK A01 T02620187  RH  063%=      5-min Rain = 0
KTAS 260006Z 18017G26KT 26/19 A2993 RMK A01 T02630188  RH  064%=      5-min Rain = 0
KTAS 260007Z 18018G24KT 26/19 A2993 RMK A01 T02630187  RH  063%=      5-min Rain = 0
KTAS 260008Z 18019G25KT 26/19 A2993 RMK A01 T02630188  RH  063%=      5-min Rain = 0
KTAS 260009Z 18020KT 26/19 A2993 RMK A01 T02640187  RH  063%=      5-min Rain = 0
KTAS 260010Z 18017KT 26/19 A2993 RMK A01 T02640187  RH  063%=      5-min Rain = 0
KTAS 260011Z 18015KT 26/19 A2993 RMK A01 T02630188  RH  063%=      5-min Rain = 0
KTAS 260012Z 18018KT 26/19 A2993 RMK A01 T02630188  RH  063%=      5-min Rain = 0
KTAS 260013Z 18016KT 26/19 A2993 RMK A01 T02630188  RH  063%=      5-min Rain = 0
KTAS 260014Z 18017KT 26/19 A2993 RMK A01 T02620188  RH  063%=      5-min Rain = 0
KTAS 260015Z 18019KT 26/19 A2993 RMK A01 T02620187  RH  063%=      5-min Rain = 0
KTAS 260016Z 17017G22KT 26/19 A2993 RMK A01 T02630187  RH  063%=      5-min Rain = 0
KTAS 260017Z 16019KT 26/19 A2993 RMK A01 T02630188  RH  063%=      5-min Rain = 0
KTAS 260018Z 17019G24KT 26/19 A2993 RMK A01 T02630187  RH  063%=      5-min Rain = 0
KTAS 260019Z 16019G24KT 26/19 A2993 RMK A01 T02630186  RH  063%=      5-min Rain = 0
KTAS 260020Z 17018G23KT 26/19 A2993 RMK A01 T02630187  RH  063%=      5-min Rain = 0
KTAS 260021Z 16018KT 26/19 A2993 RMK A01 T02640188  RH  063%=      5-min Rain = 0
KTAS 260022Z 16016KT 26/19 A2993 RMK A01 T02630187  RH  063%=      5-min Rain = 0
KTAS 260023Z 16020KT 26/19 A2993 RMK A01 T02630187  RH  063%=      5-min Rain = 0
KTAS 260024Z 16019KT 26/19 A2993 RMK A01 T02620187  RH  063%=      5-min Rain = 0
KTAS 260025Z 17018KT 26/19 A2993 RMK A01 T02620186  RH  063%=      5-min Rain = 0
KTAS 260026Z 17016KT 26/19 A2993 RMK A01 T02620187  RH  063%=      5-min Rain = 0
KTAS 260027Z 17016KT 26/19 A2993 RMK A01 T02620187  RH  063%=      5-min Rain = 0
KTAS 260028Z 17017G23KT 26/19 A2992 RMK A01 T02620187  RH  064%=      5-min Rain = 0
KTAS 260029Z 16016KT 26/19 A2992 RMK A01 T02610187  RH  064%=      5-min Rain = 0
KTAS 260030Z 17014KT 26/19 A2992 RMK A01 T02610187  RH  064%=      5-min Rain = 0
KTAS 260031Z 17018KT 26/19 A2992 RMK A01 T02610187  RH  064%=      5-min Rain = 0
KTAS 260032Z 17018KT 26/19 A2992 RMK A01 T02610186  RH  063%=      5-min Rain = 0
KTAS 260033Z 17018KT 26/19 A2992 RMK A01 T02610186  RH  063%=      5-min Rain = 0
KTAS 260034Z 17017KT 26/19 A2993 RMK A01 T02600185  RH  063%=      5-min Rain = 0
KTAS 260035Z 17016KT 26/19 A2993 RMK A01 T02600186  RH  063%=      5-min Rain = 0
KTAS 260036Z 17017KT 26/19 A2992 RMK A01 T02600185  RH  063%=      5-min Rain = 0
KTAS 260037Z 17016G22KT 26/18 A2992 RMK A01 T02600184  RH  063%=      5-min Rain = 0
KTAS 260038Z 16019KT 26/18 A2992 RMK A01 T02600183  RH  063%=      5-min Rain = 0
KTAS 260039Z 17016G21KT 26/18 A2993 RMK A01 T02600184  RH  063%=      5-min Rain = 0
KTAS 260040Z 17018KT 26/18 A2993 RMK A01 T02600184  RH  063%=      5-min Rain = 0
KTAS 260041Z 17018KT 26/19 A2993 RMK A01 T02600185  RH  063%=      5-min Rain = 0
KTAS 260042Z 17020G26KT 26/18 A2993 RMK A01 T02590184  RH  063%=      5-min Rain = 0
KTAS 260043Z 17017KT 26/18 A2993 RMK A01 T02590184  RH  063%=      5-min Rain = 0
KTAS 260044Z 17019KT 26/19 A2993 RMK A01 T02590185  RH  064%=      5-min Rain = 0
KTAS 260045Z 17015KT 26/19 A2993 RMK A01 T02590186  RH  064%=      5-min Rain = 0
KTAS 260046Z 17016KT 26/19 A2993 RMK A01 T02590186  RH  064%=      5-min Rain = 0
KTAS 260047Z 17018KT 26/19 A2993 RMK A01 T02580185  RH  064%=      5-min Rain = 0
KTAS 260048Z 17018KT 26/19 A2993 RMK A01 T02580185  RH  064%=      5-min Rain = 0
KTAS 260049Z 17018KT 26/19 A2993 RMK A01 T02580185  RH  064%=      5-min Rain = 0
KTAS 260050Z 17018KT 26/19 A2993 RMK A01 T02580185  RH  064%=      5-min Rain = 0
KTAS 260051Z 17016KT 26/19 A2993 RMK A01 T02580186  RH  064%=      5-min Rain = 0
KTAS 260052Z 17015KT 26/19 A2993 RMK A01 T02580186  RH  064%=      5-min Rain = 0
KTAS 260053Z 16013KT 26/19 A2993 RMK A01 T02580186  RH  065%=      5-min Rain = 0
KTAS 260054Z 16019KT 26/19 A2993 RMK A01 T02580185  RH  064%=      5-min Rain = 0
KTAS 260055Z 17019G24KT 26/19 A2993 RMK A01 T02580185  RH  064%=      5-min Rain = 0
KTAS 260056Z 16017KT 26/19 A2994 RMK A01 T02580185  RH  064%=      5-min Rain = 0
KTAS 260057Z 16015G20KT 26/19 A2994 RMK A01 T02580186  RH  064%=      5-min Rain = 0
KTAS 260058Z 16018KT 26/19 A2994 RMK A01 T02570185  RH  064%=      5-min Rain = 0
KTAS 260059Z 17017KT 26/18 A2994 RMK A01 T02570184  RH  064%=      5-min Rain = 0
KTAS 260100Z 17016G21KT 26/19 A2994 RMK A01 T02570185  RH  064%=      5-min Rain = 0
KTAS 260101Z 16016G22KT 26/19 A2994 RMK A01 T02560185  RH  065%=      5-min Rain = 0
KTAS 260102Z 16014KT 26/19 A2994 RMK A01 T02560186  RH  065%=      5-min Rain = 0
KTAS 260103Z 17015G20KT 26/19 A2994 RMK A01 T02550186  RH  066%=      5-min Rain = 0
KTAS 260104Z 16016KT 26/19 A2994 RMK A01 T02550186  RH  066%=      5-min Rain = 0
KTAS 260105Z 16014KT 26/19 A2994 RMK A01 T02550186  RH  066%=      5-min Rain = 0
KTAS 260106Z 16013KT 26/19 A2994 RMK A01 T02550187  RH  066%=      5-min Rain = 0
KTAS 260107Z 16014KT 26/19 A2994 RMK A01 T02550187  RH  066%=      5-min Rain = 0
KTAS 260108Z 16013KT 25/19 A2994 RMK A01 T02540187  RH  066%=      5-min Rain = 0
KTAS 260109Z 16012KT 25/19 A2994 RMK A01 T02540187  RH  067%=      5-min Rain = 0
KTAS 260110Z 16014KT 25/19 A2994 RMK A01 T02530187  RH  067%=      5-min Rain = 0
KTAS 260111Z 16018KT 25/19 A2994 RMK A01 T02530187  RH  067%=      5-min Rain = 0
KTAS 260112Z 16015KT 25/19 A2994 RMK A01 T02530187  RH  067%=      5-min Rain = 0
KTAS 260113Z 16015KT 25/19 A2994 RMK A01 T02530187  RH  067%=      5-min Rain = 0
KTAS 260114Z 16018KT 25/19 A2993 RMK A01 T02530187  RH  067%=      5-min Rain = 0
KTAS 260115Z 16018G23KT 25/19 A2993 RMK A01 T02530186  RH  066%=      5-min Rain = 0
KTAS 260116Z 16017KT 25/19 A2993 RMK A01 T02530187  RH  067%=      5-min Rain = 0
KTAS 260117Z 16017KT 25/19 A2993 RMK A01 T02530187  RH  067%=      5-min Rain = 0
KTAS 260118Z 16017G22KT 25/19 A2993 RMK A01 T02520187  RH  067%=      5-min Rain = 0
KTAS 260119Z 16015KT 25/19 A2994 RMK A01 T02520187  RH  067%=      5-min Rain = 0
KTAS 260120Z 16014KT 25/19 A2994 RMK A01 T02520187  RH  067%=      5-min Rain = 0
KTAS 260121Z 16017KT 25/19 A2993 RMK A01 T02510187  RH  068%=      5-min Rain = 0
KTAS 260122Z 16015KT 25/19 A2993 RMK A01 T02510187  RH  067%=      5-min Rain = 0
KTAS 260123Z 16016KT 25/19 A2994 RMK A01 T02510187  RH  068%=      5-min Rain = 0
KTAS 260124Z 16018KT 25/19 A2994 RMK A01 T02510186  RH  067%=      5-min Rain = 0
KTAS 260125Z 16016KT 25/19 A2994 RMK A01 T02520186  RH  067%=      5-min Rain = 0
KTAS 260126Z 16015KT 25/19 A2993 RMK A01 T02520187  RH  067%=      5-min Rain = 0
KTAS 260127Z 16014KT 25/19 A2993 RMK A01 T02510187  RH  068%=      5-min Rain = 0
KTAS 260128Z 16015KT 25/19 A2994 RMK A01 T02500187  RH  068%=      5-min Rain = 0
KTAS 260129Z 16015KT 25/19 A2994 RMK A01 T02500187  RH  068%=      5-min Rain = 0
KTAS 260130Z 16015KT 25/19 A2994 RMK A01 T02490187  RH  068%=      5-min Rain = 0
KTAS 260131Z 16012KT 25/19 A2994 RMK A01 T02490187  RH  068%=      5-min Rain = 0
KTAS 260132Z 16015KT 25/19 A2994 RMK A01 T02480187  RH  069%=      5-min Rain = 0
KTAS 260133Z 16015KT 25/19 A2994 RMK A01 T02480186  RH  069%=      5-min Rain = 0
KTAS 260134Z 16017KT 25/19 A2994 RMK A01 T02480186  RH  068%=      5-min Rain = 0
KTAS 260135Z 16015KT 25/19 A2994 RMK A01 T02480187  RH  068%=      5-min Rain = 0
KTAS 260136Z 15014G19KT 25/19 A2994 RMK A01 T02480187  RH  069%=      5-min Rain = 0
KTAS 260137Z 16014KT 25/19 A2994 RMK A01 T02470187  RH  069%=      5-min Rain = 0
KTAS 260138Z 16014KT 25/19 A2994 RMK A01 T02470187  RH  069%=      5-min Rain = 0
KTAS 260139Z 16014KT 25/19 A2994 RMK A01 T02470187  RH  069%=      5-min Rain = 0
KTAS 260140Z 16012KT 25/19 A2994 RMK A01 T02470187  RH  069%=      5-min Rain = 0
KTAS 260141Z 16013KT 25/19 A2995 RMK A01 T02470187  RH  069%=      5-min Rain = 0
KTAS 260142Z 16014KT 25/19 A2995 RMK A01 T02460187  RH  069%=      5-min Rain = 0
KTAS 260143Z 16012KT 25/19 A2995 RMK A01 T02460187  RH  070%=      5-min Rain = 0
KTAS 260144Z 16012KT 25/19 A2995 RMK A01 T02450187  RH  070%=      5-min Rain = 0
KTAS 260145Z 16012KT 25/19 A2995 RMK A01 T02450186  RH  070%=      5-min Rain = 0
KTAS 260146Z 16015KT 24/19 A2995 RMK A01 T02440186  RH  070%=      5-min Rain = 0
KTAS 260147Z 16016KT 24/19 A2995 RMK A01 T02440186  RH  070%=      5-min Rain = 0
KTAS 260148Z 16015KT 25/19 A2995 RMK A01 T02450186  RH  070%=      5-min Rain = 0
KTAS 260149Z 16014KT 25/19 A2995 RMK A01 T02450186  RH  070%=      5-min Rain = 0
KTAS 260150Z 16013KT 25/19 A2995 RMK A01 T02450186  RH  070%=      5-min Rain = 0
KTAS 260151Z 16015KT 24/19 A2995 RMK A01 T02440186  RH  070%=      5-min Rain = 0
KTAS 260152Z 15014KT 24/19 A2995 RMK A01 T02430186  RH  070%=      5-min Rain = 0
KTAS 260153Z 16013KT 24/19 A2995 RMK A01 T02430186  RH  070%=      5-min Rain = 0
KTAS 260154Z 16016KT 24/19 A2995 RMK A01 T02430186  RH  070%=      5-min Rain = 0
KTAS 260155Z 16014KT 24/19 A2995 RMK A01 T02430186  RH  070%=      5-min Rain = 0
KTAS 260156Z 16015KT 24/19 A2995 RMK A01 T02430186  RH  070%=      5-min Rain = 0
KTAS 260157Z 15014KT 24/19 A2995 RMK A01 T02430186  RH  070%=      5-min Rain = 0
KTAS 260158Z 15015KT 24/19 A2995 RMK A01 T02430186  RH  071%=      5-min Rain = 0
KTAS 260159Z 15015KT 24/19 A2995 RMK A01 T02430186  RH  071%=      5-min Rain = 0
KTAS 260200Z 16013KT 24/19 A2995 RMK A01 T02420186  RH  071%=      5-min Rain = 0
KTAS 260201Z 15015KT 24/19 A2995 RMK A01 T02410186  RH  071%=      5-min Rain = 0
KTAS 260202Z 15015KT 24/19 A2995 RMK A01 T02420185  RH  071%=      5-min Rain = 0
KTAS 260203Z 16013KT 24/19 A2995 RMK A01 T02420185  RH  071%=      5-min Rain = 0
KTAS 260204Z 16013KT 24/19 A2995 RMK A01 T02410186  RH  071%=      5-min Rain = 0
KTAS 260205Z 16013KT 24/19 A2995 RMK A01 T02410186  RH  071%=      5-min Rain = 0
KTAS 260206Z 16013KT 24/19 A2995 RMK A01 T02400186  RH  071%=      5-min Rain = 0
KTAS 260207Z 16013KT 24/19 A2995 RMK A01 T02400185  RH  072%=      5-min Rain = 0
KTAS 260208Z 16013KT 24/19 A2995 RMK A01 T02400185  RH  072%=      5-min Rain = 0
KTAS 260209Z 16013KT 24/19 A2995 RMK A01 T02400185  RH  072%=      5-min Rain = 0
KTAS 260210Z 16014KT 24/19 A2995 RMK A01 T02400185  RH  071%=      5-min Rain = 0
KTAS 260211Z 15012KT 24/19 A2995 RMK A01 T02400185  RH  072%=      5-min Rain = 0
KTAS 260212Z 16013KT 24/19 A2995 RMK A01 T02390185  RH  072%=      5-min Rain = 0
KTAS 260213Z 16014KT 24/19 A2995 RMK A01 T02390185  RH  072%=      5-min Rain = 0
KTAS 260214Z 16013KT 24/19 A2995 RMK A01 T02400185  RH  072%=      5-min Rain = 0
KTAS 260215Z 16012KT 24/19 A2995 RMK A01 T02390185  RH  072%=      5-min Rain = 0
KTAS 260216Z 16012KT 24/19 A2995 RMK A01 T02390186  RH  072%=      5-min Rain = 0
KTAS 260217Z 16011KT 24/19 A2995 RMK A01 T02380186  RH  072%=      5-min Rain = 0
KTAS 260218Z 16014KT 24/19 A2995 RMK A01 T02390186  RH  072%=      5-min Rain = 0
KTAS 260219Z 16014KT 24/19 A2995 RMK A01 T02390185  RH  072%=      5-min Rain = 0
KTAS 260220Z 16012KT 24/19 A2995 RMK A01 T02390186  RH  072%=      5-min Rain = 0
KTAS 260221Z 15013KT 24/19 A2995 RMK A01 T02390186  RH  072%=      5-min Rain = 0
KTAS 260222Z 16013KT 24/19 A2995 RMK A01 T02380186  RH  072%=      5-min Rain = 0
KTAS 260223Z 15012KT 24/19 A2995 RMK A01 T02380186  RH  072%=      5-min Rain = 0
KTAS 260224Z 16012KT 24/19 A2995 RMK A01 T02370186  RH  073%=      5-min Rain = 0
KTAS 260225Z 15013KT 24/19 A2995 RMK A01 T02370186  RH  073%=      5-min Rain = 0
KTAS 260226Z 15014KT 24/19 A2995 RMK A01 T02370186  RH  073%=      5-min Rain = 0
KTAS 260227Z 15013KT 24/19 A2995 RMK A01 T02380186  RH  072%=      5-min Rain = 0
KTAS 260228Z 15013KT 24/19 A2995 RMK A01 T02380186  RH  073%=      5-min Rain = 0
KTAS 260229Z 15014KT 24/19 A2995 RMK A01 T02380186  RH  073%=      5-min Rain = 0
KTAS 260230Z 15012KT 24/19 A2995 RMK A01 T02380186  RH  072%=      5-min Rain = 0
KTAS 260231Z 15011KT 24/19 A2995 RMK A01 T02380186  RH  073%=      5-min Rain = 0
KTAS 260232Z 15011KT 24/19 A2995 RMK A01 T02370186  RH  073%=      5-min Rain = 0
KTAS 260233Z 15014KT 24/19 A2995 RMK A01 T02370186  RH  073%=      5-min Rain = 0
KTAS 260234Z 15012KT 24/19 A2995 RMK A01 T02380186  RH  073%=      5-min Rain = 0
KTAS 260235Z 16013KT 24/19 A2995 RMK A01 T02380186  RH  072%=      5-min Rain = 0
KTAS 260236Z 16012KT 24/19 A2995 RMK A01 T02390186  RH  072%=      5-min Rain = 0
KTAS 260237Z 15013KT 24/19 A2995 RMK A01 T02380186  RH  073%=      5-min Rain = 0
KTAS 260238Z 16012KT 24/19 A2995 RMK A01 T02370186  RH  073%=      5-min Rain = 0
KTAS 260239Z 15012KT 24/19 A2995 RMK A01 T02370186  RH  073%=      5-min Rain = 0
KTAS 260240Z 16011KT 24/19 A2995 RMK A01 T02360186  RH  074%=      5-min Rain = 0
KTAS 260241Z 16011KT 24/19 A2995 RMK A01 T02350186  RH  074%=      5-min Rain = 0
KTAS 260242Z 16011KT 24/19 A2995 RMK A01 T02350186  RH  074%=      5-min Rain = 0
KTAS 260243Z 16012KT 24/19 A2995 RMK A01 T02350186  RH  074%=      5-min Rain = 0
KTAS 260244Z 16010KT 24/19 A2995 RMK A01 T02350186  RH  074%=      5-min Rain = 0
KTAS 260245Z 16010KT 23/19 A2995 RMK A01 T02340186  RH  074%=      5-min Rain = 0
KTAS 260246Z 15011KT 23/19 A2995 RMK A01 T02330186  RH  075%=      5-min Rain = 0
KTAS 260247Z 15011KT 23/19 A2995 RMK A01 T02330186  RH  075%=      5-min Rain = 0
KTAS 260248Z 15011KT 23/19 A2995 RMK A01 T02330186  RH  075%=      5-min Rain = 0
KTAS 260249Z 15012KT 23/19 A2995 RMK A01 T02330186  RH  075%=      5-min Rain = 0
KTAS 260250Z 15010KT 23/19 A2995 RMK A01 T02330186  RH  075%=      5-min Rain = 0
KTAS 260251Z 16011KT 23/19 A2995 RMK A01 T02330186  RH  075%=      5-min Rain = 0
KTAS 260252Z 16010KT 23/19 A2995 RMK A01 T02330186  RH  075%=      5-min Rain = 0
KTAS 260253Z 15011KT 23/19 A2995 RMK A01 T02320186  RH  075%=      5-min Rain = 0
KTAS 260254Z 16012KT 23/19 A2995 RMK A01 T02330186  RH  075%=      5-min Rain = 0
KTAS 260255Z 16011KT 23/19 A2995 RMK A01 T02340186  RH  074%=      5-min Rain = 0
KTAS 260256Z 16012KT 23/19 A2995 RMK A01 T02330186  RH  075%=      5-min Rain = 0
KTAS 260257Z 16012KT 23/19 A2995 RMK A01 T02330185  RH  075%=      5-min Rain = 0
KTAS 260258Z 16012KT 23/19 A2995 RMK A01 T02320185  RH  075%=      5-min Rain = 0
KTAS 260259Z 16012KT 23/19 A2995 RMK A01 T02330185  RH  074%=      5-min Rain = 0
KTAS 260300Z 16011KT 23/19 A2995 RMK A01 T02330185  RH  074%=      5-min Rain = 0
KTAS 260301Z 16012KT 23/19 A2995 RMK A01 T02330185  RH  075%=      5-min Rain = 0
KTAS 260302Z 16012KT 23/19 A2995 RMK A01 T02320185  RH  075%=      5-min Rain = 0
KTAS 260303Z 16011KT 23/19 A2995 RMK A01 T02320185  RH  075%=      5-min Rain = 0
KTAS 260304Z 15012KT 23/19 A2995 RMK A01 T02320185  RH  075%=      5-min Rain = 0
KTAS 260305Z 16011KT 23/19 A2995 RMK A01 T02320185  RH  075%=      5-min Rain = 0
KTAS 260306Z 16013KT 23/19 A2995 RMK A01 T02320185  RH  075%=      5-min Rain = 0
KTAS 260307Z 16012KT 23/19 A2995 RMK A01 T02330185  RH  075%=      5-min Rain = 0
KTAS 260308Z 16011KT 23/19 A2995 RMK A01 T02330185  RH  075%=      5-min Rain = 0
KTAS 260309Z 15013KT 23/19 A2995 RMK A01 T02320185  RH  074%=      5-min Rain = 0
KTAS 260310Z 16013KT 23/19 A2995 RMK A01 T02330185  RH  074%=      5-min Rain = 0
KTAS 260311Z 16013KT 23/18 A2995 RMK A01 T02330184  RH  074%=      5-min Rain = 0
KTAS 260312Z 16013KT 23/19 A2995 RMK A01 T02320185  RH  074%=      5-min Rain = 0
KTAS 260313Z 16014KT 23/19 A2995 RMK A01 T02320185  RH  075%=      5-min Rain = 0
KTAS 260314Z 16014KT 23/18 A2995 RMK A01 T02320184  RH  075%=      5-min Rain = 0
KTAS 260315Z 16014KT 23/18 A2995 RMK A01 T02320184  RH  074%=      5-min Rain = 0
KTAS 260316Z 16014KT 23/18 A2995 RMK A01 T02320184  RH  074%=      5-min Rain = 0
KTAS 260317Z 16015KT 23/18 A2995 RMK A01 T02320184  RH  074%=      5-min Rain = 0
KTAS 260318Z 16015KT 23/18 A2995 RMK A01 T02330184  RH  074%=      5-min Rain = 0
KTAS 260319Z 17013KT 23/18 A2995 RMK A01 T02330184  RH  074%=      5-min Rain = 0
KTAS 260320Z 16013KT 23/18 A2995 RMK A01 T02330184  RH  074%=      5-min Rain = 0
KTAS 260321Z 16013KT 23/18 A2995 RMK A01 T02310184  RH  075%=      5-min Rain = 0
KTAS 260322Z 16014KT 23/18 A2995 RMK A01 T02310184  RH  075%=      5-min Rain = 0
KTAS 260323Z 16013KT 23/18 A2995 RMK A01 T02300183  RH  075%=      5-min Rain = 0
KTAS 260324Z 16017KT 23/18 A2995 RMK A01 T02300183  RH  074%=      5-min Rain = 0
KTAS 260325Z 16013KT 23/18 A2995 RMK A01 T02310183  RH  074%=      5-min Rain = 0
KTAS 260326Z 16015KT 23/18 A2995 RMK A01 T02310183  RH  074%=      5-min Rain = 0
KTAS 260327Z 16014KT 23/18 A2995 RMK A01 T02310183  RH  074%=      5-min Rain = 0
KTAS 260328Z 16015KT 23/18 A2995 RMK A01 T02310182  RH  074%=      5-min Rain = 0
KTAS 260329Z 16014KT 23/18 A2995 RMK A01 T02310182  RH  074%=      5-min Rain = 0
KTAS 260330Z 16014KT 23/18 A2995 RMK A01 T02300182  RH  074%=      5-min Rain = 0
KTAS 260331Z 16014KT 23/18 A2995 RMK A01 T02300182  RH  074%=      5-min Rain = 0
KTAS 260332Z 16014KT 23/18 A2995 RMK A01 T02300182  RH  074%=      5-min Rain = 0
KTAS 260333Z 16015KT 23/18 A2995 RMK A01 T02300182  RH  074%=      5-min Rain = 0
KTAS 260334Z 16012KT 23/18 A2995 RMK A01 T02300182  RH  074%=      5-min Rain = 0
KTAS 260335Z 16014KT 23/18 A2995 RMK A01 T02280182  RH  075%=      5-min Rain = 0
KTAS 260336Z 16015KT 23/18 A2995 RMK A01 T02280182  RH  075%=      5-min Rain = 0
KTAS 260337Z 16014KT 23/18 A2995 RMK A01 T02280182  RH  075%=      5-min Rain = 0
KTAS 260338Z 17014KT 23/18 A2995 RMK A01 T02290181  RH  075%=      5-min Rain = 0
KTAS 260339Z 17014KT 23/18 A2995 RMK A01 T02290182  RH  075%=      5-min Rain = 0
KTAS 260340Z 17014KT 23/18 A2995 RMK A01 T02280181  RH  075%=      5-min Rain = 0
KTAS 260341Z 17012KT 23/18 A2995 RMK A01 T02280182  RH  075%=      5-min Rain = 0
KTAS 260342Z 16014KT 23/18 A2995 RMK A01 T02270181  RH  075%=      5-min Rain = 0
KTAS 260343Z 16013KT 23/18 A2995 RMK A01 T02270182  RH  076%=      5-min Rain = 0
KTAS 260344Z 17013G18KT 23/18 A2995 RMK A01 T02270181  RH  075%=      5-min Rain = 0
KTAS 260345Z 17013KT 23/18 A2995 RMK A01 T02260181  RH  076%=      5-min Rain = 0
KTAS 260346Z 16013KT 23/18 A2995 RMK A01 T02260181  RH  076%=      5-min Rain = 0
KTAS 260347Z 16014KT 23/18 A2995 RMK A01 T02260181  RH  076%=      5-min Rain = 0
KTAS 260348Z 16013KT 23/18 A2995 RMK A01 T02260180  RH  075%=      5-min Rain = 0
KTAS 260349Z 17015KT 23/18 A2995 RMK A01 T02260180  RH  075%=      5-min Rain = 0
KTAS 260350Z 16012KT 23/18 A2995 RMK A01 T02270180  RH  075%=      5-min Rain = 0
KTAS 260351Z 16014KT 23/18 A2995 RMK A01 T02270180  RH  075%=      5-min Rain = 0
KTAS 260352Z 17013KT 23/18 A2995 RMK A01 T02270180  RH  074%=      5-min Rain = 0
KTAS 260353Z 17016KT 23/18 A2995 RMK A01 T02270180  RH  074%=      5-min Rain = 0
KTAS 260354Z 17013KT 23/18 A2995 RMK A01 T02280179  RH  074%=      5-min Rain = 0
KTAS 260355Z 17013KT 23/18 A2995 RMK A01 T02280179  RH  074%=      5-min Rain = 0
KTAS 260356Z 17015KT 23/18 A2995 RMK A01 T02270179  RH  074%=      5-min Rain = 0
KTAS 260357Z 17014KT 23/18 A2995 RMK A01 T02270179  RH  074%=      5-min Rain = 0
KTAS 260358Z 17013KT 23/18 A2995 RMK A01 T02270179  RH  074%=      5-min Rain = 0
KTAS 260359Z 17014KT 23/18 A2995 RMK A01 T02270179  RH  074%=      5-min Rain = 0
KTAS 260400Z 17013KT 23/18 A2995 RMK A01 T02270179  RH  074%=      5-min Rain = 0
KTAS 260401Z 17013KT 23/18 A2995 RMK A01 T02270179  RH  074%=      5-min Rain = 0
KTAS 260402Z 17013KT 23/18 A2995 RMK A01 T02260179  RH  075%=      5-min Rain = 0
KTAS 260403Z 17013KT 23/18 A2996 RMK A01 T02250179  RH  075%=      5-min Rain = 0
KTAS 260404Z 17011KT 22/18 A2996 RMK A01 T02240179  RH  075%=      5-min Rain = 0
KTAS 260405Z 17012KT 22/18 A2996 RMK A01 T02230179  RH  076%=      5-min Rain = 0
KTAS 260406Z 17011KT 22/18 A2995 RMK A01 T02220179  RH  076%=      5-min Rain = 0
KTAS 260407Z 17012KT 22/18 A2995 RMK A01 T02220179  RH  076%=      5-min Rain = 0
KTAS 260408Z 17011KT 22/18 A2995 RMK A01 T02220178  RH  076%=      5-min Rain = 0
KTAS 260409Z 17012KT 22/18 A2995 RMK A01 T02220178  RH  076%=      5-min Rain = 0
KTAS 260410Z 18011KT 22/18 A2995 RMK A01 T02220178  RH  076%=      5-min Rain = 0
KTAS 260411Z 17011G16KT 22/18 A2995 RMK A01 T02210178  RH  077%=      5-min Rain = 0
KTAS 260412Z 17011KT 22/18 A2995 RMK A01 T02200178  RH  077%=      5-min Rain = 0
KTAS 260413Z 17011KT 22/18 A2995 RMK A01 T02200178  RH  077%=      5-min Rain = 0
KTAS 260414Z 17011KT 22/18 A2995 RMK A01 T02190178  RH  077%=      5-min Rain = 0
KTAS 260415Z 17011KT 22/18 A2995 RMK A01 T02190178  RH  078%=      5-min Rain = 0
KTAS 260416Z 17012KT 22/18 A2995 RMK A01 T02190178  RH  078%=      5-min Rain = 0
KTAS 260417Z 17012KT 22/18 A2995 RMK A01 T02190178  RH  077%=      5-min Rain = 0
KTAS 260418Z 17010KT 22/18 A2995 RMK A01 T02200177  RH  077%=      5-min Rain = 0
KTAS 260419Z 17011KT 22/18 A2995 RMK A01 T02190178  RH  077%=      5-min Rain = 0
KTAS 260420Z 17012KT 22/18 A2995 RMK A01 T02190178  RH  077%=      5-min Rain = 0
KTAS 260421Z 17010KT 22/18 A2995 RMK A01 T02180177  RH  077%=      5-min Rain = 0
KTAS 260422Z 17011KT 22/18 A2995 RMK A01 T02180177  RH  077%=      5-min Rain = 0
KTAS 260423Z 17010KT 22/18 A2995 RMK A01 T02180177  RH  077%=      5-min Rain = 0
KTAS 260424Z 17010KT 22/18 A2995 RMK A01 T02180177  RH  078%=      5-min Rain = 0
KTAS 260425Z 17010KT 22/18 A2995 RMK A01 T02170177  RH  078%=      5-min Rain = 0
KTAS 260426Z 17011KT 22/18 A2995 RMK A01 T02160177  RH  078%=      5-min Rain = 0
KTAS 260427Z 17012KT 22/18 A2995 RMK A01 T02160177  RH  078%=      5-min Rain = 0
KTAS 260428Z 17011KT 22/18 A2995 RMK A01 T02170177  RH  078%=      5-min Rain = 0
KTAS 260429Z 17011KT 22/18 A2995 RMK A01 T02170177  RH  078%=      5-min Rain = 0
KTAS 260430Z 17010KT 22/18 A2995 RMK A01 T02170177  RH  078%=      5-min Rain = 0
KTAS 260431Z 17011KT 22/18 A2995 RMK A01 T02160177  RH  078%=      5-min Rain = 0
KTAS 260432Z 17010KT 22/18 A2995 RMK A01 T02160177  RH  079%=      5-min Rain = 0
KTAS 260433Z 17010KT 22/18 A2995 RMK A01 T02160177  RH  079%=      5-min Rain = 0
KTAS 260434Z 17011KT 22/18 A2995 RMK A01 T02150177  RH  079%=      5-min Rain = 0
KTAS 260435Z 17011KT 22/18 A2995 RMK A01 T02150177  RH  079%=      5-min Rain = 0
KTAS 260436Z 17011KT 21/18 A2995 RMK A01 T02140177  RH  079%=      5-min Rain = 0
KTAS 260437Z 17011KT 21/18 A2995 RMK A01 T02140177  RH  079%=      5-min Rain = 0
KTAS 260438Z 17011KT 22/18 A2995 RMK A01 T02150177  RH  079%=      5-min Rain = 0
KTAS 260439Z 17010KT 22/18 A2995 RMK A01 T02150177  RH  079%=      5-min Rain = 0
KTAS 260440Z 17011KT 21/18 A2995 RMK A01 T02140177  RH  079%=      5-min Rain = 0
KTAS 260441Z 17012KT 21/18 A2995 RMK A01 T02140177  RH  079%=      5-min Rain = 0
KTAS 260442Z 17011KT 22/18 A2995 RMK A01 T02150177  RH  079%=      5-min Rain = 0
KTAS 260443Z 17012KT 22/18 A2995 RMK A01 T02150177  RH  079%=      5-min Rain = 0
KTAS 260444Z 17012KT 22/18 A2995 RMK A01 T02150177  RH  079%=      5-min Rain = 0
KTAS 260445Z 17013KT 22/18 A2995 RMK A01 T02150177  RH  079%=      5-min Rain = 0
KTAS 260446Z 17012KT 22/18 A2995 RMK A01 T02160177  RH  079%=      5-min Rain = 0
KTAS 260447Z 17012KT 22/18 A2995 RMK A01 T02150177  RH  079%=      5-min Rain = 0
KTAS 260448Z 17013KT 22/18 A2995 RMK A01 T02150177  RH  079%=      5-min Rain = 0
KTAS 260449Z 17013KT 22/18 A2995 RMK A01 T02150177  RH  079%=      5-min Rain = 0
KTAS 260450Z 17012KT 22/18 A2995 RMK A01 T02150177  RH  079%=      5-min Rain = 0
KTAS 260451Z 16012KT 22/18 A2995 RMK A01 T02150177  RH  079%=      5-min Rain = 0
KTAS 260452Z 17011KT 22/18 A2995 RMK A01 T02150177  RH  079%=      5-min Rain = 0
KTAS 260453Z 17012KT 22/18 A2995 RMK A01 T02150177  RH  079%=      5-min Rain = 0
KTAS 260454Z 16012KT 22/18 A2995 RMK A01 T02150177  RH  079%=      5-min Rain = 0
KTAS 260455Z 16012KT 22/18 A2995 RMK A01 T02150178  RH  079%=      5-min Rain = 0
KTAS 260456Z 16012KT 22/18 A2995 RMK A01 T02150177  RH  079%=      5-min Rain = 0
KTAS 260457Z 16011KT 22/18 A2995 RMK A01 T02150178  RH  079%=      5-min Rain = 0
KTAS 260458Z 17012KT 22/18 A2995 RMK A01 T02150178  RH  079%=      5-min Rain = 0
KTAS 260459Z 17011KT 21/18 A2995 RMK A01 T02140177  RH  079%=      5-min Rain = 0

Page generated in 0.1483 seconds.